GFSMA_prec_cthk_000.txt.gz
RH
41 40 38 38 38 37 37 36 35 33 30 28 28 28 27 27 27 27 26 27 31 35 42 48 53 54 66 81 88 85 81 82 82 78 74 67 57 56 53 44 47 45 45
44 43 42 42 41 41 42 42 42 40 38 36 35 35 34 33 32 32 31 29 27 31 36 39 46 54 55 71 80 87 90 85 84 84 83 80 73 69 61 48 44 49 47
44 43 43 42 42 43 43 43 43 43 43 43 44 43 42 41 40 37 35 34 33 32 30 34 49 58 65 61 72 83 89 95 92 89 89 89 82 74 73 65 49 48 50
42 43 43 44 45 46 46 47 47 47 47 48 49 49 49 47 46 45 43 41 39 38 38 37 36 46 64 72 67 70 76 84 94 94 93 96 94 86 79 79 75 58 49
42 43 44 46 47 48 48 48 49 49 50 51 51 51 52 52 52 50 49 47 45 45 45 44 43 42 44 49 53 61 72 80 85 90 95 93 95 98 94 88 87 82 68
45 45 46 47 49 49 49 49 50 50 52 52 53 54 54 55 55 55 55 54 53 50 48 47 47 47 46 44 41 41 65 73 79 84 91 92 92 96 96 93 91 91 87
49 50 48 48 50 51 53 53 52 52 52 53 53 53 53 53 54 55 54 53 53 52 51 48 48 49 51 50 49 45 42 61 67 79 76 79 88 94 96 95 98 99 94
47 49 50 50 49 50 51 52 53 55 55 56 53 52 50 50 51 51 51 50 50 48 48 49 47 45 47 52 54 54 51 48 55 63 64 74 80 89 94 96 92 98 98
47 47 49 51 51 52 51 51 52 53 54 53 56 57 52 48 46 45 47 48 49 47 46 45 47 44 40 41 49 58 58 54 51 53 58 59 70 77 91 95 97 96 95
48 48 49 51 54 57 56 55 55 60 60 60 65 61 57 52 49 46 45 42 44 48 48 44 44 44 42 40 42 50 60 61 56 53 50 53 65 74 81 89 97 96 97
49 48 48 48 47 49 50 53 59 61 62 64 69 69 67 60 54 54 51 49 46 45 45 43 42 45 46 42 44 46 52 58 63 61 57 52 52 66 78 83 94 94 97
36 35 36 37 38 41 43 50 58 60 66 66 68 71 71 66 66 67 66 61 58 53 48 44 42 42 46 49 47 50 52 53 58 65 66 62 54 57 72 82 91 94 98
32 30 30 30 33 36 41 47 56 62 63 74 78 90 80 76 79 82 83 76 67 58 54 51 47 46 48 50 55 54 56 60 59 66 73 69 61 59 60 76 93 95 98
35 30 32 34 38 43 48 56 61 68 72 90 84 95 91 97 96 89 90 83 73 66 58 56 53 51 53 53 57 59 60 63 63 65 67 71 74 68 58 65 88 95 96
43 44 46 50 56 55 59 70 78 88 86 88 85 90 97 98 97 95 94 90 86 73 61 59 55 54 55 56 55 63 63 66 66 71 69 71 72 71 67 57 69 94 95
48 52 56 57 64 66 70 71 80 80 77 82 85 85 84 83 82 81 81 79 75 71 61 54 54 54 55 56 57 56 61 66 66 73 74 75 70 73 74 67 52 74 92
45 51 58 65 74 78 80 77 77 83 81 77 73 69 65 61 56 55 55 54 53 53 52 45 46 46 46 49 52 52 52 58 64 65 70 73 75 75 80 78 65 58 84
57 60 72 85 84 84 85 86 84 81 78 73 67 60 54 50 49 47 47 46 45 45 45 41 40 40 40 42 45 47 49 48 52 57 62 66 72 78 81 79 78 62 68
71 80 85 91 93 91 90 88 83 77 68 60 56 53 50 47 44 41 38 37 37 37 37 36 34 33 33 31 32 36 38 43 45 45 50 57 65 79 79 78 76 73 58
85 90 97 97 95 92 88 84 77 67 61 57 54 50 45 40 37 34 32 29 29 29 30 30 30 29 30 28 27 26 24 24 32 39 39 41 48 59 75 77 73 68 62
97 98 97 96 95 93 90 84 71 62 58 52 44 38 34 29 25 25 28 30 34 38 42 44 43 42 41 41 38 33 29 23 19 22 29 30 34 41 50 64 70 71 69
96 95 92 91 92 87 79 70 64 59 51 42 35 27 24 22 26 33 39 45 49 50 54 58 58 57 55 55 53 48 41 37 29 25 23 22 25 28 36 44 55 65 72
89 88 85 79 73 69 64 59 54 47 39 32 27 23 24 28 37 46 54 60 65 69 70 71 72 73 73 71 67 62 56 49 42 38 38 32 30 28 31 36 47 56 67
70 68 66 64 60 56 54 49 43 36 30 27 26 27 34 43 57 64 69 73 76 78 82 83 80 81 83 82 79 71 68 64 60 55 54 48 46 41 38 35 37 45 56
59 56 54 50 46 42 41 37 34 30 29 29 31 39 53 64 75 78 80 82 86 91 95 96 94 92 91 91 90 82 77 74 69 66 64 59 54 51 48 40 35 37 45
42 39 39 42 43 44 43 39 37 34 32 35 42 59 75 82 83 86 90 93 94 96 97 97 98 97 94 92 92 93 89 83 80 73 74 70 66 64 55 47 40 36 45

GFSMA_prec_cthk_003.txt.gz
RH
42 43 42 42 41 41 41 41 42 42 41 40 37 34 31 29 29 28 28 27 26 25 27 33 40 47 60 67 74 86 93 91 86 84 78 73 69 61 55 57 48 41 44
40 40 40 39 40 40 41 41 42 43 42 42 41 41 40 39 37 36 35 33 32 31 30 30 35 41 52 55 59 63 81 94 92 87 86 83 80 75 69 64 61 54 46
39 38 38 39 39 41 42 43 43 44 43 43 44 45 46 46 45 44 42 40 39 37 35 34 33 33 41 55 56 57 61 76 90 92 89 88 88 90 86 77 74 66 55
40 41 41 42 43 43 44 44 45 45 46 46 47 48 48 49 49 49 48 47 45 44 41 39 37 36 35 37 55 71 65 67 77 87 94 91 91 91 93 90 82 78 72
46 44 46 46 46 45 46 46 46 46 46 46 47 49 49 50 49 50 51 50 50 49 48 46 43 42 41 40 39 48 71 72 73 78 82 92 94 93 93 96 89 81 78
48 47 43 42 45 46 46 46 47 48 48 47 47 48 49 51 51 51 51 51 51 51 50 49 49 47 44 44 45 42 46 55 68 71 76 82 88 93 91 92 95 95 87
48 48 45 43 42 42 45 47 48 50 49 52 53 53 50 49 50 51 51 52 53 51 51 52 50 50 50 48 47 48 47 45 50 48 51 70 80 88 95 95 93 92 99
49 46 43 43 43 43 45 48 50 51 51 52 52 53 52 53 55 52 50 50 50 50 49 49 48 48 47 50 49 47 50 52 49 48 45 44 63 77 87 89 92 94 94
49 47 45 45 45 44 44 47 51 52 54 55 56 54 53 50 53 55 56 53 50 49 49 45 45 46 45 42 45 46 46 51 54 55 54 50 44 52 70 81 82 81 83
47 45 39 35 34 34 34 37 42 44 52 59 59 61 56 58 55 50 56 62 57 54 51 49 45 44 42 39 38 41 45 47 49 53 56 57 53 48 44 54 70 72 71
36 33 32 30 29 27 26 26 27 30 36 45 55 60 62 59 61 57 49 59 61 57 59 58 55 50 45 41 36 36 41 42 44 48 49 52 56 59 52 47 45 54 66
38 37 35 33 29 27 27 29 30 32 33 37 43 48 62 61 59 59 62 54 56 54 60 61 57 56 51 48 44 41 41 43 44 47 48 50 54 55 56 56 52 52 56
41 41 40 38 35 28 26 29 33 37 43 50 53 56 63 72 68 65 72 72 76 70 63 63 61 59 59 55 50 45 45 45 50 50 52 51 51 54 55 56 58 60 63
41 43 42 42 42 41 44 43 48 52 54 62 65 68 75 88 83 87 89 82 82 79 74 67 65 60 59 59 56 49 49 48 49 56 54 57 56 53 51 51 54 57 60
40 44 46 48 52 54 64 67 68 72 73 77 78 82 87 95 94 94 96 94 91 83 79 78 74 75 70 67 63 54 50 48 51 54 59 61 60 55 50 47 45 51 58
44 46 52 56 60 66 70 75 82 84 79 80 81 83 84 83 80 81 80 79 79 75 66 67 72 70 70 65 63 57 55 48 53 56 58 62 66 62 54 51 48 44 53
52 52 57 63 74 80 88 89 96 94 92 87 84 81 78 74 73 70 66 63 59 62 63 57 59 59 51 49 49 53 57 53 48 52 56 63 64 71 69 59 55 50 47
58 64 70 75 85 91 93 95 93 92 91 88 83 74 69 64 61 59 59 59 57 58 57 53 52 55 56 48 46 48 52 53 52 51 45 48 58 59 66 67 64 57 53
70 71 79 87 93 94 92 92 91 90 89 84 72 65 63 63 61 58 56 56 53 49 50 49 46 43 43 41 39 38 38 39 38 41 41 40 41 46 51 58 63 64 58
78 80 86 91 93 91 91 89 88 89 84 74 68 65 62 59 55 51 46 42 39 37 37 41 41 38 38 38 39 38 36 36 29 26 28 35 37 38 41 46 48 57 62
82 87 89 90 89 86 84 83 79 73 69 65 61 58 52 47 42 37 37 35 37 41 42 42 42 43 43 45 44 43 42 39 37 34 29 24 28 36 37 38 42 45 49
77 75 73 71 69 68 66 64 62 61 59 58 54 48 42 35 31 30 30 34 38 44 50 55 57 56 56 59 59 57 54 53 43 45 41 32 30 25 30 35 39 39 42
56 53 53 54 54 53 52 52 52 52 51 46 43 41 37 32 33 36 39 45 51 58 63 66 66 69 69 71 72 71 69 65 60 61 56 46 42 37 34 34 30 34 40
46 41 37 35 36 38 41 42 43 42 42 39 36 33 36 37 40 46 53 60 67 70 75 78 77 78 79 81 82 81 80 76 74 70 64 54 53 45 41 36 32 32 36
31 32 34 37 40 40 42 45 46 46 46 43 38 40 43 45 53 63 70 73 78 83 88 89 92 93 92 90 91 91 89 89 84 80 74 66 62 54 51 43 35 34 35
35 37 43 49 51 53 53 52 50 49 45 44 44 46 51 60 72 76 77 80 85 92 92 94 97 96 96 97 97 97 95 91 90 87 85 76 75 71 64 57 49 43 39

GFSMA_prec_cthk_006.txt.gz
RH
45 44 43 43 43 44 45 46 46 45 42 42 42 40 40 39 37 38 36 31 30 30 29 28 28 33 41 47 60 65 74 88 94 91 86 81 75 65 53 43 40 36 34
44 43 43 43 43 46 45 45 47 45 45 43 44 42 42 44 44 42 42 41 37 35 34 33 32 31 34 41 50 60 69 81 91 95 95 92 86 77 72 60 52 48 44
45 42 45 45 45 45 44 46 45 44 43 45 45 46 45 46 47 45 45 45 44 42 40 39 38 36 34 34 40 52 61 68 79 94 94 96 91 89 83 80 66 59 57
45 44 48 46 45 44 45 45 45 44 44 43 42 44 45 46 46 47 48 48 49 49 47 45 43 42 40 38 36 35 48 64 64 67 75 86 91 90 89 89 89 78 70
48 47 45 45 45 44 42 42 43 43 43 43 44 44 43 42 44 46 47 47 48 48 50 48 48 47 46 45 43 40 37 40 65 68 66 72 80 85 93 90 94 94 89
49 48 48 46 47 48 46 46 44 44 46 44 44 43 44 46 46 45 45 47 48 48 48 49 49 52 49 48 48 46 44 41 39 54 73 69 77 87 91 94 94 94 93
52 52 51 50 47 47 46 43 44 44 43 47 47 45 44 46 47 47 49 49 48 49 51 51 49 49 50 49 48 48 47 46 46 45 43 63 68 77 85 93 98 97 95
60 53 48 44 43 41 39 39 39 39 41 45 48 50 48 49 50 47 48 47 51 53 53 53 48 47 47 49 48 47 48 47 46 48 49 49 50 60 69 80 85 84 90
54 49 43 38 34 34 35 34 35 35 39 40 46 50 49 50 56 55 52 51 51 50 52 53 51 49 48 46 46 46 45 46 47 46 47 49 49 49 52 54 67 91 94
51 44 38 36 34 35 38 38 39 40 42 38 44 44 49 47 54 59 60 57 55 56 56 53 56 53 52 51 45 43 41 40 42 45 48 48 47 49 50 48 44 45 65
43 42 41 39 36 35 36 33 32 37 37 38 43 43 41 55 51 59 60 69 65 60 56 53 55 61 59 56 54 52 43 37 35 37 42 46 48 48 48 50 50 46 42
51 50 44 39 37 35 34 32 32 31 32 36 41 45 46 46 53 55 58 65 73 72 61 58 59 63 66 62 60 54 48 43 40 36 35 37 41 46 48 49 49 51 50
49 45 38 37 36 35 37 40 42 44 43 41 44 50 56 59 63 65 65 66 70 77 76 67 62 67 68 71 67 61 53 47 46 45 42 37 35 39 43 47 49 49 50
48 41 40 42 47 48 50 52 58 60 62 62 64 63 65 72 77 79 79 81 87 83 87 83 81 75 75 68 69 62 59 52 50 52 51 49 47 42 39 40 43 47 48
48 45 49 53 54 57 61 61 64 70 76 81 85 93 86 85 80 80 88 92 90 88 92 95 90 89 81 76 76 69 67 64 59 54 54 51 49 49 46 43 40 41 42
54 55 56 62 63 66 65 69 76 82 89 92 93 94 94 93 92 90 93 93 94 94 91 88 85 84 82 76 78 72 66 62 59 53 48 50 51 53 51 50 46 40 39
58 61 67 68 70 71 82 87 92 97 96 95 93 91 87 85 85 82 79 77 79 79 76 72 75 74 72 68 63 62 64 62 64 59 51 43 46 48 52 53 51 47 42
65 60 65 68 77 82 91 94 98 97 95 92 89 86 82 77 72 69 69 71 75 73 70 67 69 65 60 60 61 62 59 58 58 56 52 44 39 41 46 48 51 53 51
63 66 71 79 87 94 98 98 96 94 94 92 90 87 80 74 71 69 69 68 70 69 66 63 60 59 57 55 54 53 53 52 51 49 50 50 45 38 35 38 41 43 52
73 77 82 88 88 84 85 88 91 92 88 84 80 74 71 69 68 68 66 63 60 56 55 56 53 51 51 50 50 49 50 50 49 48 47 46 45 42 39 36 34 35 40
63 67 65 63 62 60 58 57 61 67 71 71 68 67 66 65 57 53 51 48 45 44 46 50 53 49 47 49 51 49 49 50 48 51 49 46 45 44 41 35 33 31 30
64 59 53 44 38 39 36 33 33 38 44 46 52 53 52 52 50 44 42 39 38 37 40 45 45 43 43 48 53 54 54 53 50 51 50 46 47 46 44 43 43 39 36
53 39 34 35 37 39 37 37 36 38 40 45 48 48 47 46 44 45 45 44 40 40 42 46 51 55 60 68 70 69 67 65 61 61 60 56 56 50 44 43 40 35 34
37 35 36 39 44 50 48 47 46 48 51 53 53 52 51 48 46 46 48 47 49 53 57 63 68 73 76 79 80 80 79 76 74 72 72 68 65 59 57 48 42 39 34
34 37 46 52 55 57 56 53 51 53 58 59 59 55 53 51 51 52 54 56 59 65 74 79 81 83 87 92 94 95 91 89 82 80 81 79 75 71 64 54 50 43 38
43 50 57 60 60 64 69 66 63 62 59 58 58 59 58 57 56 59 63 68 73 80 85 89 88 91 94 96 95 94 96 96 96 92 93 88 84 84 78 62 56 48 42

GFSMA_prec_cthk_009.txt.gz
RH
48 49 49 48 47 48 51 48 47 47 45 44 44 44 44 43 43 43 45 42 39 35 32 30 29 29 30 33 37 43 56 67 74 83 85 87 81 76 72 67 64 52 42
49 48 48 50 48 46 45 45 45 43 41 40 40 41 43 44 45 47 46 44 42 40 38 37 36 34 33 32 34 40 45 58 64 75 96 91 84 84 79 77 65 52 45
50 47 49 51 50 48 46 46 45 45 45 42 40 40 39 39 39 41 43 45 45 45 43 41 40 39 38 37 36 36 41 44 57 64 79 85 93 87 83 82 77 64 53
51 50 49 48 48 45 47 47 45 48 48 47 44 41 38 38 38 37 37 37 42 44 43 45 44 43 42 41 41 40 37 40 45 55 66 83 94 97 91 87 86 81 69
57 55 54 53 52 51 49 48 46 45 46 45 45 44 41 41 41 41 39 38 37 37 42 41 41 42 42 43 43 44 43 41 38 41 51 63 72 95 89 85 93 93 91
59 56 57 56 54 51 51 49 47 47 45 45 43 43 42 40 39 40 42 41 41 41 40 41 39 39 41 42 42 43 46 46 45 39 39 48 63 71 75 84 86 92 93
60 58 58 55 52 48 44 38 36 34 35 37 41 41 40 39 42 43 41 42 43 43 42 42 46 45 42 40 41 42 42 44 47 47 43 38 37 54 65 70 82 85 92
67 64 59 54 50 43 39 39 37 37 37 40 42 43 47 46 46 49 51 47 40 42 44 44 48 48 46 44 41 41 41 41 42 46 47 46 42 39 48 60 64 81 94
67 63 58 51 45 44 43 44 44 44 41 39 43 46 51 50 51 48 62 68 68 59 47 46 48 47 44 44 45 41 40 39 40 40 43 46 47 45 44 43 49 62 82
65 57 52 46 48 46 43 42 41 38 37 34 36 41 43 45 57 57 50 67 72 68 65 60 61 54 47 44 45 49 43 44 41 40 40 41 45 48 46 45 44 54 53
59 54 49 46 46 44 41 41 41 42 42 42 44 45 44 41 51 58 53 54 76 77 76 73 81 62 58 55 51 44 48 46 46 44 40 38 38 44 49 48 46 46 46
47 46 45 48 48 52 51 47 48 48 45 44 44 44 45 45 46 48 48 47 58 76 84 88 86 82 73 67 63 56 44 50 49 48 47 41 36 36 41 49 50 48 47
47 50 52 54 55 57 58 57 58 54 58 53 53 55 53 58 59 61 61 61 67 72 85 96 91 91 81 82 72 65 49 48 53 52 48 45 41 37 35 37 43 49 50
50 52 51 49 52 53 58 60 61 55 57 63 65 70 69 74 78 86 86 80 75 80 92 92 85 88 87 87 83 69 61 57 55 53 53 52 49 45 39 35 34 37 42
50 50 54 52 53 56 60 61 66 64 64 70 76 83 87 90 91 97 96 92 87 89 86 92 96 97 96 93 84 77 72 73 64 54 51 57 57 55 53 48 41 36 34
49 48 52 60 62 62 67 68 69 73 76 81 88 91 94 95 93 94 96 97 95 92 87 87 86 91 94 92 91 85 88 82 74 70 63 62 59 57 57 54 49 44 40
47 47 48 52 60 65 71 79 80 88 93 95 95 93 90 92 89 86 84 86 87 89 77 71 79 80 81 84 87 88 84 84 81 72 62 59 52 52 52 56 55 49 44
48 53 56 62 69 80 85 94 95 91 94 95 97 96 94 93 91 88 84 80 81 78 79 72 74 78 80 80 78 79 78 79 77 73 65 60 61 51 45 49 52 52 50
51 54 59 68 73 81 86 83 81 85 88 89 90 91 91 88 85 84 83 82 83 85 83 79 75 73 71 70 70 70 69 69 67 68 67 61 56 60 54 44 39 41 41
54 60 63 67 68 64 58 53 46 44 41 50 60 63 69 72 73 73 74 75 76 75 72 70 65 64 64 62 63 62 61 61 59 62 60 57 51 47 51 51 41 37 32
61 63 62 60 52 46 49 40 37 34 34 38 42 46 51 53 54 54 60 60 62 63 62 63 62 59 64 63 64 66 64 63 63 62 63 58 58 57 49 43 40 32 27
61 65 53 48 50 48 46 40 41 43 43 44 47 49 49 53 57 52 49 48 47 51 54 52 48 49 48 50 52 52 55 56 54 56 57 55 60 56 53 53 52 50 42
68 55 53 52 51 53 53 48 47 50 52 53 57 60 60 57 57 56 54 54 54 48 47 46 44 42 42 42 47 51 53 57 58 61 61 57 62 58 54 51 49 48 47
57 54 53 52 52 57 62 59 62 64 68 71 71 70 66 62 62 61 58 53 49 50 50 52 52 50 54 58 63 66 69 68 67 68 71 63 62 58 60 58 53 48 47
57 53 52 54 56 63 72 73 72 72 76 76 76 75 72 65 58 54 56 54 53 53 59 61 62 64 69 75 79 82 82 83 78 77 78 74 69 65 66 60 59 55 47
57 52 53 58 62 70 77 78 80 77 77 76 76 82 76 71 68 64 60 61 59 64 70 73 76 83 88 89 91 91 92 92 92 90 92 88 81 77 72 68 65 61 56

GFSMA_prec_cthk_012.txt.gz
RH
45 45 45 44 44 45 44 42 40 40 39 38 36 35 34 34 35 36 38 39 41 40 38 37 37 35 31 28 27 29 33 40 50 57 71 96 91 84 81 78 75 77 71
46 47 45 43 44 44 43 40 40 41 40 40 38 36 33 31 30 31 34 36 35 35 36 37 37 37 37 37 34 31 31 34 41 54 62 72 73 83 84 82 78 71 68
50 50 48 47 47 45 43 43 42 42 42 41 41 40 39 36 33 32 30 31 31 30 31 32 34 35 37 38 39 38 36 35 38 42 55 64 74 86 87 84 84 79 70
53 52 51 51 49 47 45 43 42 42 43 40 39 40 40 42 40 37 35 33 34 33 31 31 31 31 33 35 37 39 41 40 40 42 45 55 64 76 91 91 90 88 81
59 58 56 54 53 51 49 47 43 41 41 38 35 33 36 41 43 41 38 36 34 35 37 34 33 32 31 31 32 35 37 40 42 43 43 44 53 64 79 94 95 95 91
63 60 59 58 61 57 53 49 42 37 33 32 32 33 32 32 32 31 36 36 38 38 38 38 38 35 33 31 31 32 33 35 39 42 44 44 45 51 65 79 93 93 97
66 68 66 64 61 55 51 45 39 35 33 33 33 31 31 31 33 37 39 43 44 43 43 41 39 40 37 36 33 32 32 33 34 38 42 45 45 45 51 63 75 81 89
76 80 77 66 65 56 49 41 39 36 33 34 36 34 31 27 27 31 35 42 49 55 50 56 56 49 47 44 39 35 33 33 34 34 36 41 45 47 46 48 59 68 89
84 78 67 59 51 47 42 36 38 40 39 37 40 43 39 35 36 35 33 36 53 64 75 85 84 70 54 52 49 41 37 35 34 33 34 36 40 45 48 49 47 48 58
58 58 56 49 45 43 41 41 45 47 45 43 45 47 47 48 46 40 35 36 36 53 69 78 81 90 76 68 54 52 42 41 44 39 37 36 35 39 45 48 50 50 45
57 54 51 49 48 47 47 54 56 50 53 53 53 51 50 48 49 50 41 37 36 42 47 67 85 85 97 90 80 74 59 50 48 46 42 40 41 38 37 44 48 50 51
59 59 57 52 49 51 57 59 57 58 54 54 54 52 53 52 53 52 51 36 39 33 36 42 68 74 98 85 93 84 71 59 52 52 47 43 45 43 40 38 44 48 51
60 53 52 55 56 56 54 52 57 55 49 50 53 56 59 61 60 67 66 58 50 42 42 44 45 61 97 98 98 96 90 83 66 63 56 50 44 45 44 41 43 47 45
51 50 49 46 44 43 42 42 48 48 51 52 55 61 62 64 67 71 73 79 73 65 59 62 65 66 79 98 99 98 95 91 89 80 72 56 49 45 49 48 43 43 43
47 46 44 44 43 36 44 46 51 56 57 61 66 69 73 76 78 82 85 89 98 89 85 86 76 73 78 89 96 98 98 97 91 80 69 59 56 53 52 54 54 49 46
35 32 36 38 43 49 56 61 64 67 75 78 84 90 93 93 93 93 92 90 90 89 81 88 87 79 81 88 94 97 97 97 88 83 76 71 66 61 60 58 59 57 52
26 35 39 40 45 51 59 70 79 83 85 87 92 97 98 98 98 98 96 94 90 88 80 73 80 82 81 86 89 88 94 91 89 84 80 75 76 74 70 62 62 62 60
34 41 46 49 52 59 62 66 69 69 68 73 79 79 75 84 91 92 94 93 92 90 86 76 69 69 75 76 79 81 85 86 86 83 82 79 74 68 66 62 58 60 61
44 46 49 52 53 54 53 47 44 42 39 38 42 40 41 50 46 48 55 66 75 81 83 79 74 73 67 64 62 64 72 78 79 79 75 76 71 67 67 64 56 51 54
49 48 52 56 56 50 46 47 43 40 38 36 31 29 34 44 52 59 61 56 55 62 71 69 66 64 61 57 57 56 58 60 61 65 63 63 66 64 62 60 60 54 49
50 55 60 56 52 51 54 47 42 42 45 43 41 42 44 47 50 55 57 58 54 46 47 54 55 59 63 66 67 75 77 76 74 72 68 59 61 65 63 60 56 54 48
59 64 66 59 54 51 52 47 49 53 58 62 62 60 59 59 61 67 66 63 57 50 46 47 51 54 56 59 60 62 64 66 67 62 60 58 61 54 54 57 62 60 55
70 76 66 59 54 55 56 54 57 63 68 69 69 69 70 73 77 76 72 65 61 58 55 53 54 48 49 48 48 47 48 52 55 58 57 54 57 57 58 58 60 61 58
84 68 58 60 59 58 61 62 63 70 75 77 77 75 72 72 77 82 74 66 61 60 55 52 51 49 54 52 53 50 50 50 48 51 60 63 62 60 62 59 57 57 55
75 59 59 65 62 60 58 65 76 84 86 87 88 91 88 80 75 79 74 66 58 54 55 55 55 54 56 59 59 61 60 65 66 70 74 75 70 66 63 59 57 55 54
59 60 59 57 59 60 68 83 93 95 94 90 92 93 91 85 87 90 79 74 68 64 60 55 55 57 62 65 74 82 86 86 84 82 83 83 81 81 74 65 62 59 57

GFSMA_prec_cthk_015.txt.gz
RH
48 46 44 44 44 43 42 40 39 37 36 34 34 34 34 32 31 30 29 28 30 32 33 34 34 36 37 38 37 36 34 33 35 41 52 52 61 73 84 82 75 84 89
51 52 50 48 48 46 46 43 41 38 37 35 34 36 35 35 35 34 33 31 30 29 29 29 31 32 33 35 38 40 39 38 36 39 44 54 69 72 80 78 77 82 82
58 58 56 52 50 49 47 46 44 42 41 39 37 35 34 33 33 34 37 38 34 31 30 29 28 28 29 29 30 33 38 41 42 41 43 47 55 67 69 75 76 76 83
61 62 60 55 54 55 54 51 50 45 44 43 39 35 32 30 30 34 35 40 39 37 35 33 30 28 27 28 28 28 30 35 40 44 44 48 55 58 63 76 82 80 83
63 64 62 59 62 63 62 58 54 51 44 40 34 29 25 25 26 23 23 32 34 38 37 36 35 34 32 29 27 27 28 29 32 38 43 48 51 56 60 72 82 90 82
63 66 70 66 65 66 67 60 50 43 36 31 29 27 24 23 24 25 25 27 37 38 35 34 38 37 37 38 38 32 29 29 29 31 36 42 47 52 56 60 74 86 91
66 69 69 64 56 53 47 47 42 38 33 30 29 28 27 26 25 24 24 26 30 35 42 45 42 47 41 43 46 46 41 29 28 29 31 34 42 46 49 52 61 68 87
70 71 63 56 50 48 45 43 41 38 38 40 40 38 35 31 31 30 29 29 33 33 36 42 50 71 63 65 63 64 53 50 37 30 31 32 34 41 46 47 50 55 63
68 58 54 54 53 50 48 48 47 47 47 48 52 51 47 45 43 35 32 33 32 33 34 43 55 58 58 73 76 80 75 62 55 44 32 31 32 34 39 46 49 52 58
59 59 58 58 54 53 47 43 44 47 49 50 50 55 61 59 56 48 44 41 40 39 40 38 43 53 67 69 77 75 79 78 71 56 46 34 32 32 35 39 44 49 51
63 60 56 51 45 47 49 48 46 45 47 50 54 56 53 55 57 53 43 37 32 31 34 37 40 43 50 62 78 89 92 89 80 70 60 44 41 38 36 35 38 43 50
56 53 49 47 46 45 43 43 43 40 43 48 52 59 57 51 51 55 47 34 37 31 33 33 35 39 41 49 60 72 96 97 93 86 74 64 52 43 39 40 42 39 43
49 47 42 36 34 34 35 38 39 43 43 45 47 49 48 52 57 60 64 53 50 40 39 41 43 47 46 47 48 66 96 99 97 95 90 79 68 56 45 42 43 47 46
45 43 41 34 30 32 35 38 42 46 50 50 52 56 59 62 71 77 81 78 64 63 59 60 59 67 65 55 52 55 71 84 93 95 95 92 86 75 61 50 45 48 52
41 37 31 28 31 34 36 43 46 49 53 58 66 72 77 81 87 90 93 96 97 79 67 73 70 75 82 78 68 61 69 94 96 99 91 90 90 85 77 66 57 51 56
34 26 26 31 35 39 45 47 52 55 61 69 79 85 90 93 95 97 98 98 98 97 79 80 80 79 85 89 91 79 76 96 97 98 99 95 91 91 85 82 70 57 55
29 32 34 34 37 39 44 48 52 52 51 47 47 52 58 65 74 84 86 91 93 93 91 77 79 77 77 80 86 86 79 93 97 97 95 95 91 86 85 79 73 67 62
54 54 49 48 46 43 47 48 45 44 41 43 45 44 44 43 41 42 41 51 64 65 72 72 78 79 78 80 81 83 87 87 94 95 94 94 91 84 81 77 76 72 66
68 64 56 58 51 48 48 46 47 45 45 45 44 43 42 40 36 35 45 46 44 48 51 48 53 67 73 77 77 76 73 78 86 90 90 89 84 78 77 77 75 74 72
79 71 57 71 53 54 50 46 45 44 45 45 48 50 51 52 53 54 55 55 51 49 47 49 48 48 57 64 67 66 55 56 63 72 76 78 70 67 68 72 70 70 70
82 69 74 74 61 47 47 50 49 50 51 49 52 54 56 61 68 71 74 70 64 61 55 50 43 40 38 51 56 61 64 61 60 59 57 61 59 57 57 62 63 66 65
88 71 77 74 50 46 53 60 61 57 54 56 59 64 68 70 74 75 77 79 79 77 69 61 53 48 45 48 54 57 61 66 65 69 70 63 62 59 58 59 64 65 62
80 77 74 66 46 56 61 63 57 55 65 77 82 82 79 81 80 78 77 78 81 81 77 68 64 56 50 47 51 55 57 58 65 66 66 64 64 59 57 58 57 57 59
86 74 70 49 58 61 59 53 55 70 84 91 92 89 83 87 94 91 83 78 77 76 74 67 61 51 50 45 54 56 59 62 60 55 51 49 46 48 51 51 53 55 58
78 73 50 52 52 53 51 51 68 83 86 88 87 87 89 88 89 93 88 81 79 81 73 66 61 58 56 53 56 60 59 59 54 46 48 48 45 48 52 55 58 59 60
66 49 51 50 51 51 50 60 80 82 83 86 90 93 96 97 92 88 88 88 84 78 70 66 64 60 57 52 53 58 58 58 61 58 61 63 59 61 60 58 59 59 57

GFSMA_prec_cthk_021.txt.gz
RH
41 43 48 50 51 51 50 50 50 50 49 49 48 46 44 43 43 42 40 37 34 31 32 33 33 30 29 31 35 38 39 38 35 32 30 30 34 40 55 72 80 78 81
50 52 57 56 54 50 50 52 52 52 53 52 50 45 47 50 48 48 44 39 36 35 31 32 31 33 31 29 28 29 33 36 37 36 36 33 34 37 52 66 77 82 84
64 63 64 58 54 51 54 55 55 54 52 49 44 37 37 40 37 34 31 29 29 28 29 32 30 30 31 31 29 27 27 29 32 36 38 37 36 37 48 68 74 81 94
69 66 60 58 56 55 58 56 53 49 42 36 32 31 29 28 28 27 27 27 27 27 26 27 29 32 29 30 31 29 27 28 29 31 32 35 38 38 37 51 72 83 95
72 66 65 63 60 58 52 49 43 37 37 35 33 33 33 32 31 30 29 27 26 26 26 25 26 29 32 29 28 31 31 31 29 30 31 31 32 33 36 39 57 76 81
73 71 69 62 55 51 49 42 38 37 36 34 32 31 31 32 32 34 37 37 36 33 32 32 31 31 31 35 34 31 32 33 34 32 30 31 33 33 33 35 42 66 80
75 68 61 58 55 50 46 44 41 39 35 30 27 28 28 31 32 32 33 35 36 38 39 37 38 39 37 36 35 35 34 31 34 37 35 32 31 32 34 33 36 42 67
65 60 58 56 51 48 48 45 40 33 28 28 29 27 28 25 27 29 30 34 36 36 37 37 38 38 39 43 42 42 39 37 37 35 43 41 36 32 32 32 32 35 43
56 57 57 57 59 55 45 38 31 28 26 26 28 29 31 31 29 25 23 26 29 30 32 34 33 34 36 38 42 45 47 42 40 42 47 51 44 40 34 33 31 32 36
62 60 56 65 62 52 42 29 25 26 28 28 28 28 30 34 34 30 29 24 23 24 25 27 30 31 32 34 37 43 46 44 52 49 47 49 50 50 44 35 32 30 33
61 60 56 51 49 47 34 28 30 33 31 30 31 30 28 33 36 45 36 33 35 29 30 28 32 33 33 34 36 39 41 44 48 55 56 53 56 57 58 47 37 31 31
49 43 39 37 36 33 30 32 33 35 35 36 42 44 45 45 45 52 54 44 46 42 42 44 46 44 41 39 37 35 37 39 42 48 58 65 63 60 66 61 51 38 32
38 37 39 44 44 39 38 40 44 44 50 51 53 52 53 52 53 59 63 58 64 57 50 53 65 64 54 49 43 40 39 37 37 45 52 58 73 72 66 69 63 54 40
39 44 49 47 42 51 52 51 51 58 59 60 51 52 52 51 53 51 67 79 75 75 65 63 67 78 74 71 64 58 52 46 43 42 42 52 58 84 72 75 78 69 62
39 41 45 50 63 64 69 67 62 57 58 53 57 54 47 46 46 45 47 59 78 84 79 78 76 79 85 86 79 74 69 60 54 49 47 46 51 57 61 63 73 82 79
48 53 53 61 67 68 69 68 66 68 59 55 47 42 40 45 44 43 43 45 48 51 55 64 66 76 77 81 87 80 79 76 65 56 58 60 54 56 62 61 67 80 88
54 53 51 63 73 74 75 77 74 65 58 50 49 44 46 47 42 39 38 38 39 42 42 35 35 42 63 67 66 74 76 79 78 71 65 73 68 61 67 72 72 79 88
41 41 43 58 75 74 81 76 71 66 50 50 50 49 50 50 46 41 40 39 40 43 46 41 37 37 38 39 56 59 62 66 75 78 74 71 82 75 72 77 75 77 89
32 40 48 60 67 81 78 82 75 55 50 54 55 53 49 45 42 45 49 51 51 53 53 53 48 45 47 44 39 37 44 39 62 68 72 73 86 90 79 80 86 84 92
37 46 54 65 75 75 88 80 68 55 54 53 52 46 44 51 62 65 63 63 66 71 79 78 67 60 56 55 51 42 34 29 32 52 64 71 76 89 92 87 91 90 92
48 52 61 74 74 78 80 71 60 51 50 46 44 44 57 67 69 70 71 71 73 75 78 87 88 83 75 72 67 59 46 37 30 29 52 69 74 81 91 94 90 86 89
46 57 66 75 77 76 66 55 50 47 45 42 42 55 65 66 72 80 83 90 92 87 83 87 93 93 87 82 78 71 58 45 35 33 40 58 70 75 81 88 95 94 90
59 65 69 70 67 54 52 51 46 44 41 39 49 64 67 76 85 91 95 95 96 97 91 88 95 93 89 86 82 73 65 53 41 36 40 50 57 67 79 81 83 86 94
65 72 72 62 51 50 52 47 41 39 37 41 63 69 78 87 93 96 96 99 97 97 94 87 95 97 91 85 79 73 67 55 45 38 41 44 55 54 61 72 77 72 78
70 75 63 51 51 51 48 44 39 37 37 51 70 79 88 93 96 98 98 99 99 96 93 88 87 93 92 88 79 75 67 58 48 40 41 43 51 57 53 52 58 64 66
74 59 51 51 49 46 47 42 38 39 40 57 74 86 92 96 98 99 99 99 99 97 97 90 93 84 81 78 76 71 62 56 51 40 35 39 44 54 54 56 55 53 55

GFSMA_prec_cthk_024.txt.gz
RH
51 50 51 54 57 55 50 48 48 50 51 50 49 48 46 44 40 39 42 46 43 41 35 29 28 28 28 28 27 28 32 36 36 35 31 28 28 35 39 45 65 78 84
57 59 58 61 62 59 56 53 52 52 52 48 45 39 36 33 30 29 28 31 34 34 34 32 29 27 28 28 28 28 27 28 32 36 36 35 31 27 27 36 45 60 80
67 66 67 67 64 63 62 58 56 52 47 41 36 32 31 30 30 28 26 25 25 24 23 24 26 27 28 27 27 27 28 27 27 28 31 36 36 35 31 29 37 48 63
75 75 70 70 66 70 68 56 48 44 41 37 34 33 32 31 29 28 27 28 28 28 26 25 24 24 24 26 26 27 28 28 30 29 29 30 32 35 34 34 32 43 62
78 78 71 73 70 62 52 48 47 45 40 36 34 31 28 26 25 25 27 30 31 33 33 33 31 28 26 25 26 27 29 29 30 31 30 29 30 31 33 33 34 36 54
80 73 74 67 54 50 48 47 46 43 38 33 29 23 22 21 21 22 23 24 26 28 31 33 33 33 33 31 29 28 30 30 31 32 34 37 32 31 31 33 35 34 37
67 63 57 52 52 51 49 47 46 43 39 34 29 23 18 20 19 17 20 21 19 19 21 23 26 29 31 34 36 35 33 34 34 34 34 40 43 38 32 33 35 35 34
55 51 50 50 50 50 51 48 41 35 32 28 26 23 22 20 21 22 18 19 19 17 18 18 17 17 20 24 28 34 37 39 39 38 35 35 39 47 43 33 32 34 34
52 54 54 54 52 47 40 33 27 22 21 22 24 27 29 30 29 27 22 21 22 20 18 16 17 20 19 18 20 24 29 36 41 45 48 41 40 40 48 49 38 33 33
59 57 52 44 39 36 31 27 24 24 26 29 32 38 41 45 44 38 38 37 35 32 27 26 24 24 26 25 24 22 22 25 33 43 52 55 51 44 46 52 55 43 37
50 49 42 38 36 34 33 30 30 30 32 36 37 39 40 46 47 50 44 40 41 42 40 32 34 39 41 34 32 30 28 24 24 32 46 55 55 54 53 54 59 55 46
37 33 31 30 29 31 29 35 34 34 38 38 41 46 49 49 49 47 46 45 51 52 51 48 47 57 53 46 41 37 35 33 30 27 30 44 56 63 66 61 58 58 59
31 30 31 35 37 37 38 46 46 49 50 50 50 50 55 54 51 45 45 46 52 45 48 53 61 68 75 67 60 54 47 43 40 34 30 32 45 62 73 68 64 59 63
36 35 39 42 44 46 47 46 47 50 55 52 59 53 51 49 46 49 52 52 39 40 37 48 57 68 83 86 82 71 63 56 50 44 37 31 34 46 63 71 65 65 54
37 41 43 47 48 48 48 55 59 64 62 62 62 52 47 47 47 47 45 48 48 42 34 30 31 43 64 79 88 88 79 72 62 54 46 40 34 39 47 60 71 64 64
39 41 41 41 45 47 52 59 65 69 68 67 64 51 43 44 45 47 47 50 51 48 42 36 31 32 32 37 55 73 80 74 74 66 57 50 45 41 42 51 59 71 68
29 29 36 43 46 47 63 65 66 71 76 74 70 48 44 45 45 44 43 41 41 44 41 33 35 33 35 37 40 43 52 68 66 69 65 60 53 45 47 49 53 57 65
28 30 38 42 51 55 54 66 70 74 74 68 59 47 45 44 43 40 40 46 56 62 63 58 53 48 44 42 53 50 36 42 55 58 56 63 63 57 51 61 57 55 59
26 32 42 46 54 51 67 69 72 73 67 58 49 46 44 42 39 46 59 62 63 64 67 73 64 62 57 61 59 55 49 41 35 35 46 50 59 67 61 69 75 63 64
29 33 43 49 53 61 71 73 69 62 53 49 47 43 41 40 49 60 64 70 77 79 84 88 84 78 78 72 75 72 60 54 47 35 30 33 45 60 68 73 82 74 69
33 39 43 50 60 68 68 63 56 48 48 45 41 37 36 43 65 69 77 83 86 88 93 95 93 91 88 85 86 87 83 68 57 47 35 27 28 52 67 74 82 86 77
37 43 54 62 64 71 69 50 47 45 46 41 35 35 38 58 65 80 87 94 99 99 98 99 97 97 93 87 90 95 93 82 67 58 45 34 29 44 67 74 85 91 86
41 51 61 66 71 69 48 45 44 45 42 37 36 36 49 65 76 83 89 96 98 99 99 98 98 97 92 94 95 95 94 87 76 68 55 38 34 33 64 75 76 89 89
50 59 65 72 65 49 46 45 43 43 38 37 38 40 60 74 84 90 96 97 98 98 99 99 98 95 89 96 99 94 88 82 74 67 59 44 37 32 42 72 76 80 88
58 64 65 55 51 50 46 43 45 42 38 38 40 45 66 80 89 96 97 97 97 98 99 99 99 95 93 93 96 97 89 81 72 68 63 51 41 37 39 53 64 70 84
56 58 55 53 52 48 45 45 47 42 38 39 42 47 68 83 92 95 99 98 98 99 93 90 90 93 96 92 91 87 84 79 74 68 60 50 43 41 41 50 56 55 63

GFSMA_prec_cthk_027.txt.gz
RH
55 53 55 57 59 60 59 55 55 55 51 47 44 40 37 33 29 26 25 24 24 28 30 32 32 31 30 27 27 28 26 25 29 35 37 35 31 29 29 40 51 59 76
61 63 66 69 69 67 65 60 55 57 52 47 41 36 33 29 27 26 24 23 21 21 21 21 21 22 25 26 26 27 28 28 27 26 31 37 37 34 29 28 32 40 53
70 76 76 76 73 67 62 68 59 56 48 41 37 35 31 28 26 24 23 22 22 22 21 20 21 21 20 21 21 24 26 27 28 28 26 27 33 37 36 33 29 26 35
80 78 74 72 75 68 73 63 53 47 44 42 38 34 31 27 23 22 20 20 20 21 22 23 24 24 23 22 21 22 22 24 26 28 28 26 26 29 35 37 37 33 29
84 78 73 71 69 59 53 49 47 46 41 38 35 31 28 24 23 22 21 21 19 18 18 18 20 22 24 25 25 24 23 23 23 27 29 30 31 33 34 34 37 37 37
70 65 63 59 55 50 49 48 45 40 34 27 22 19 17 15 15 18 18 16 16 17 15 14 14 13 15 18 22 25 27 27 26 25 28 28 32 35 38 36 35 35 38
61 60 56 52 51 49 46 43 39 34 27 20 19 20 18 15 20 17 19 20 19 15 15 14 14 13 12 11 11 14 19 25 28 29 28 29 32 32 33 41 36 33 34
56 54 54 55 53 50 46 39 31 26 22 20 20 23 24 25 26 24 25 21 21 20 22 21 18 17 15 13 11 11 12 14 20 28 33 33 34 35 37 37 43 40 35
59 58 56 51 44 40 33 29 26 23 24 25 23 30 35 34 37 31 34 37 36 32 30 28 28 28 26 25 21 18 14 14 14 17 25 34 38 38 40 41 40 44 44
55 50 47 41 32 29 27 26 24 24 26 33 33 37 38 41 46 46 53 51 43 37 34 32 32 31 31 29 28 27 25 24 19 18 18 23 34 44 44 42 41 41 47
45 37 33 31 31 31 31 32 32 35 34 35 41 43 45 52 54 59 53 51 48 46 44 42 40 40 40 40 39 36 35 34 32 27 23 22 26 36 50 53 47 43 45
36 36 36 36 37 37 37 38 39 41 41 38 42 43 46 47 49 51 55 53 45 37 37 33 42 49 49 53 52 48 48 46 45 40 33 27 26 29 38 57 61 55 51
40 41 40 38 39 39 43 39 38 39 38 41 42 47 47 50 44 47 49 52 48 37 33 38 31 36 45 53 56 61 64 62 57 51 44 36 30 29 31 48 66 63 58
40 39 39 39 39 41 35 38 39 43 48 49 52 58 54 55 48 41 42 47 45 42 38 36 33 29 30 38 43 55 69 74 70 61 55 48 40 33 32 39 54 69 75
36 35 32 32 31 33 41 51 44 52 55 57 54 55 56 55 51 43 46 51 51 43 35 32 30 34 34 37 37 32 47 65 77 77 66 61 53 42 36 39 47 57 74
28 27 26 27 32 40 51 54 50 56 56 56 60 58 56 52 46 46 47 48 47 43 37 36 36 36 35 34 36 34 32 36 55 73 72 67 64 57 45 37 41 45 55
30 27 27 30 36 42 47 47 51 55 59 65 64 58 54 47 46 46 47 45 45 52 55 48 52 51 48 50 48 45 40 43 40 49 60 70 68 60 58 47 37 42 48
29 28 29 34 39 46 47 49 54 63 68 66 60 55 46 47 46 44 46 47 59 65 66 61 64 66 69 64 59 55 55 53 53 42 36 52 66 67 57 54 47 40 48
29 29 33 37 42 48 52 54 65 68 64 58 52 45 46 45 41 40 44 60 67 74 80 78 72 79 78 78 77 76 69 63 64 47 39 38 47 57 63 53 53 47 52
31 33 35 42 43 51 58 66 72 72 58 47 45 45 40 37 40 42 60 69 77 83 88 91 87 88 89 89 92 89 85 79 68 65 48 41 34 36 44 50 54 53 57
33 33 38 43 52 59 65 70 74 50 42 43 42 39 35 35 38 50 67 77 84 89 94 96 94 92 94 95 96 95 94 92 82 74 65 51 43 35 33 33 54 60 62
33 34 39 48 57 64 70 71 48 43 41 40 40 37 35 37 45 62 72 82 89 95 97 98 96 97 96 100 98 99 97 92 85 87 78 64 52 43 38 36 45 58 66
35 39 46 54 60 64 55 48 45 41 41 41 40 36 38 43 50 67 78 89 94 99 99 99 99 99 98 98 98 95 93 91 93 93 87 73 61 49 42 39 42 63 74
37 43 49 54 55 51 49 47 42 43 43 43 38 37 42 45 55 73 83 87 94 99 100 99 93 93 96 98 96 93 96 98 98 96 89 74 67 56 46 34 44 60 79
41 46 48 49 51 52 49 45 44 45 46 42 37 42 44 47 59 76 80 86 93 97 99 96 87 88 90 95 96 97 98 99 97 93 86 78 70 61 53 39 34 57 74
44 49 51 52 51 50 44 43 46 47 46 39 40 40 38 48 62 71 70 76 80 95 97 95 86 84 88 93 94 99 98 96 93 92 85 78 72 65 52 41 34 37 67

GFSMA_prec_cthk_030.txt.gz
RH
70 69 66 64 66 66 64 62 61 54 53 52 49 46 42 39 35 30 27 24 21 21 20 19 19 21 24 25 25 27 28 31 30 28 28 28 35 36 32 29 33 46 60
79 74 74 74 71 68 68 67 63 59 59 53 49 44 40 36 33 28 26 26 22 19 19 18 18 18 18 18 20 22 24 24 28 31 29 29 28 31 38 37 31 30 40
81 81 81 80 76 68 64 66 61 56 53 49 45 41 37 34 29 26 24 25 25 22 19 18 18 18 18 18 19 19 20 23 24 27 31 30 30 34 29 35 37 35 30
83 86 84 80 69 63 61 59 53 49 46 42 38 31 27 24 22 22 22 20 20 19 19 18 15 15 16 17 18 20 21 21 22 24 26 29 30 32 33 34 33 38 38
82 77 69 62 59 58 56 52 49 45 42 37 29 24 24 22 19 23 20 19 18 17 17 17 13 11 11 11 12 14 16 19 22 23 23 27 30 31 30 35 38 33 36
61 58 58 57 57 56 52 48 44 39 35 32 27 25 26 24 24 27 26 22 26 27 23 20 19 17 17 14 11 10 10 11 14 22 23 25 26 32 34 32 36 38 37
57 58 57 56 55 52 48 43 40 35 33 33 31 26 26 29 39 38 36 28 29 28 29 28 27 27 24 20 20 20 11 10 11 16 17 19 25 28 32 37 34 46 43
64 62 61 59 53 50 47 40 33 31 30 31 34 29 27 27 31 46 37 32 33 34 31 33 33 33 33 32 31 23 23 22 13 12 12 15 16 23 30 34 39 40 47
65 62 56 51 48 42 36 35 34 31 33 30 34 35 36 34 35 34 41 43 42 38 39 39 39 37 38 38 36 37 33 24 20 19 17 14 20 22 29 37 38 42 43
64 59 51 40 35 35 35 36 36 36 35 33 35 39 42 42 45 46 48 48 47 38 35 36 44 39 44 47 44 45 37 28 26 25 24 24 21 20 25 30 39 42 44
54 46 41 38 37 39 43 41 38 38 38 40 41 41 44 46 48 53 49 47 42 45 48 40 37 35 42 41 46 49 42 37 35 34 32 28 26 23 26 27 31 42 45
53 54 49 44 43 42 43 42 45 47 49 47 46 47 51 53 58 57 54 52 44 38 44 42 43 42 38 36 43 44 42 43 43 43 44 44 35 29 27 31 29 39 47
56 54 51 44 45 48 46 46 50 53 57 55 53 53 59 59 60 60 61 56 50 38 40 48 48 49 48 43 40 38 45 40 42 48 50 50 51 41 33 29 28 32 45
51 45 39 42 41 49 51 52 51 52 59 53 54 60 58 60 61 61 60 58 50 42 40 44 45 43 39 43 44 33 39 39 37 45 58 60 56 55 45 37 33 33 39
44 42 43 43 43 48 49 51 50 53 54 50 58 61 64 67 65 62 60 59 59 50 40 40 41 46 46 45 45 43 36 38 37 33 43 60 64 63 59 48 38 37 38
39 38 37 38 40 41 47 51 49 54 56 56 60 65 69 65 63 60 59 59 57 55 45 41 50 56 56 53 51 50 51 42 33 28 30 38 60 67 65 60 48 38 36
39 37 35 34 39 44 48 51 54 57 51 60 67 69 64 59 56 58 58 56 56 55 54 47 56 60 64 64 62 63 59 55 54 49 45 41 42 58 68 66 58 47 36
40 38 38 41 40 45 48 50 50 56 60 68 71 73 58 51 53 54 52 49 49 51 64 63 68 72 73 74 74 71 69 65 64 63 66 55 46 37 57 67 64 55 46
38 38 43 41 40 42 42 45 53 61 70 73 71 55 47 47 48 47 44 47 51 61 73 78 75 82 83 84 83 84 84 83 76 76 65 56 50 38 38 54 64 60 51
40 40 41 34 35 41 47 54 60 67 75 67 49 44 42 43 43 40 41 47 56 71 79 83 84 88 90 92 92 88 86 89 88 84 84 71 62 50 37 37 51 61 59
40 43 39 36 38 45 52 58 65 65 50 47 42 42 42 43 38 38 44 52 67 78 83 85 90 94 95 94 96 92 91 90 89 92 94 91 77 65 61 46 45 53 58
45 43 42 41 42 48 48 52 49 46 46 43 44 43 45 42 42 42 47 59 75 82 86 90 95 98 96 88 89 93 94 98 96 97 97 98 87 73 66 63 58 50 51
42 42 45 44 47 51 48 46 47 44 46 46 45 46 44 43 45 49 55 69 79 85 87 93 96 98 89 89 89 93 95 96 96 96 97 92 89 82 70 64 50 38 36
39 45 46 47 49 48 46 47 44 42 46 47 49 47 43 43 48 49 58 69 75 83 86 94 97 96 84 84 90 95 96 93 90 89 91 88 89 82 76 62 53 38 38
42 48 47 51 52 52 48 48 43 45 49 52 49 43 42 42 45 51 54 69 75 80 87 96 94 92 78 76 84 91 94 97 98 97 98 96 94 87 78 63 51 42 38
45 46 51 54 55 54 50 48 45 48 52 53 44 41 42 42 35 51 55 65 77 80 84 96 94 95 85 81 83 93 97 99 98 96 95 99 97 90 79 63 55 46 37

GFSMA_prec_cthk_033.txt.gz
RH
78 81 78 75 73 73 72 71 67 60 58 55 51 48 45 42 40 38 35 29 26 22 20 19 19 18 18 17 18 19 20 20 22 23 26 29 29 27 27 32 36 35 44
82 83 82 82 82 80 80 72 60 53 54 52 49 46 43 38 34 32 29 26 24 23 19 18 17 18 18 18 17 17 17 18 19 21 22 24 28 30 28 28 30 36 35
86 88 84 82 93 75 73 59 58 55 51 49 44 38 34 27 25 24 26 27 28 27 25 19 15 14 14 14 15 15 16 18 18 18 19 21 24 27 28 29 33 31 35
87 83 84 76 66 61 56 57 54 50 47 41 36 32 27 25 25 24 27 35 31 26 25 26 23 15 13 12 12 11 12 15 14 16 18 19 20 22 28 30 29 34 33
74 70 62 58 56 56 55 51 49 46 41 35 30 30 30 27 28 29 30 38 38 36 36 29 28 22 19 18 16 15 16 19 16 19 20 19 19 21 22 27 30 31 34
57 58 57 55 54 56 54 52 46 41 37 35 33 34 32 29 28 36 40 42 41 39 38 37 36 35 32 27 23 20 23 21 21 21 20 20 17 15 21 23 27 32 32
58 59 60 59 61 62 56 50 45 39 38 37 34 32 33 31 31 37 39 47 39 38 37 38 38 37 36 37 39 37 29 26 25 23 22 21 19 12 11 20 25 29 33
63 63 64 67 65 60 52 47 42 42 39 37 36 36 37 31 33 41 43 44 43 43 45 42 41 41 41 40 41 44 44 35 25 23 24 23 22 20 16 15 20 28 32
66 65 66 65 58 50 47 47 46 44 42 42 44 41 40 40 39 38 36 38 40 41 42 42 40 38 41 35 41 46 40 36 30 24 26 29 29 27 22 20 19 24 34
68 67 61 53 49 50 50 49 52 51 50 48 45 44 44 45 47 39 42 42 41 44 43 41 43 43 38 35 45 40 44 42 39 31 28 31 35 33 30 24 23 21 25
67 60 55 55 56 53 55 56 57 55 50 47 47 47 46 46 43 46 45 45 42 42 46 45 44 43 42 42 40 39 51 42 37 35 33 34 35 38 35 28 28 27 23
60 60 61 58 54 52 58 56 55 49 53 51 59 58 55 50 51 54 54 49 46 35 43 44 45 46 44 45 46 45 42 39 36 37 36 37 40 38 37 35 28 30 32
58 57 53 51 50 49 48 53 50 48 51 54 64 68 63 48 54 57 58 59 53 39 40 49 49 49 48 49 46 44 43 40 42 41 38 35 37 38 39 36 33 29 29
60 53 48 49 49 48 49 49 50 51 54 54 66 64 57 59 64 62 66 66 51 48 47 54 52 48 50 48 46 45 44 41 39 39 38 36 32 33 40 46 41 36 30
50 45 47 48 46 42 41 47 47 53 53 65 64 63 62 67 69 72 71 60 68 54 49 53 50 50 52 54 54 54 51 46 44 43 38 34 32 29 29 44 52 45 38
47 45 47 46 44 44 42 48 50 48 64 61 63 62 59 71 75 75 64 60 62 64 53 52 48 50 56 59 59 59 58 55 51 48 47 44 32 27 26 27 48 55 48
47 49 49 48 48 48 50 44 49 54 54 58 57 60 68 75 76 73 60 56 59 57 54 41 42 51 62 63 66 67 65 66 61 61 56 55 50 45 37 28 30 54 60
51 52 51 51 50 48 43 41 45 46 49 53 58 66 74 77 63 53 53 52 51 49 48 48 42 58 66 71 72 72 74 78 76 74 74 72 67 63 54 41 27 41 59
56 54 54 52 54 46 40 42 43 47 54 59 64 71 67 52 50 49 49 48 46 47 49 52 54 66 72 75 75 79 81 83 84 83 83 80 74 66 58 47 35 25 53
58 57 54 60 47 39 41 43 49 56 55 58 59 51 49 47 48 46 43 43 44 46 52 60 70 75 79 81 88 87 84 79 79 78 86 88 88 82 74 58 40 27 39
58 56 59 54 45 43 42 40 47 54 48 48 51 50 47 47 43 42 43 41 47 51 58 69 77 79 83 88 89 86 76 75 79 82 87 91 93 91 90 78 58 43 29
56 54 59 57 47 44 39 40 42 43 40 44 45 46 47 47 50 47 44 45 50 58 64 78 80 81 86 90 91 80 79 83 83 86 94 96 97 97 98 93 79 66 54
54 55 61 54 47 49 42 43 42 43 41 46 46 49 50 51 50 45 45 46 53 59 68 79 80 88 90 91 88 75 80 86 89 90 95 90 94 97 98 96 84 62 56
60 56 58 49 52 50 46 45 46 44 45 49 51 53 53 49 45 40 36 46 54 63 76 81 79 90 89 88 80 73 80 83 85 88 89 87 89 89 92 88 75 59 50
57 50 53 53 53 55 53 51 48 47 47 50 54 55 50 42 40 36 32 42 50 63 73 74 82 89 84 88 81 75 82 90 93 95 96 96 91 89 87 81 73 65 51
53 51 48 51 54 61 56 54 51 52 49 51 55 52 47 38 39 34 33 36 47 60 67 69 87 91 89 93 88 78 85 93 96 96 96 96 98 98 90 84 80 66 55

GFSMA_prec_cthk_036.txt.gz
RH
72 71 74 74 73 73 72 71 67 66 56 48 47 44 43 40 36 32 33 31 27 29 27 24 21 19 18 17 17 18 19 19 19 20 22 24 28 30 26 25 25 26 28
74 77 73 77 78 76 69 71 60 51 49 46 44 41 38 34 28 26 27 25 25 29 28 26 24 19 18 17 15 13 13 14 16 17 18 19 22 26 29 27 25 25 27
74 74 72 79 77 68 53 48 46 45 44 40 36 32 30 30 25 24 25 23 31 34 31 29 28 25 22 19 19 20 20 18 13 12 14 17 19 19 24 30 27 25 25
69 72 70 65 55 48 45 44 45 45 42 38 32 29 30 29 26 28 28 27 35 37 37 35 35 31 28 24 23 22 22 23 23 21 20 16 20 18 19 22 29 28 26
66 61 51 47 47 48 48 48 49 46 40 33 30 31 31 30 29 29 33 35 40 42 42 42 41 38 36 33 29 28 25 32 30 29 31 25 20 14 13 18 20 27 28
48 47 47 48 49 51 53 53 50 45 39 36 35 34 33 34 33 32 38 44 42 42 42 40 39 38 37 37 35 37 42 39 35 33 33 27 25 21 17 11 15 21 26
50 52 54 54 56 59 57 52 45 41 39 38 36 34 34 33 32 31 35 37 41 43 43 41 39 38 34 33 33 36 39 39 37 34 31 28 33 31 23 20 11 13 22
57 58 58 60 61 60 54 44 40 39 39 39 38 39 35 32 32 33 33 35 38 41 43 44 41 38 37 36 32 31 42 39 38 29 30 28 34 33 33 29 22 12 14
60 59 62 63 60 55 46 42 39 41 44 42 40 39 38 36 33 33 33 30 30 34 36 33 34 37 38 34 30 31 35 36 32 29 31 29 29 35 36 34 30 24 21
61 62 64 57 54 52 47 41 42 46 45 43 42 41 38 40 40 34 35 29 31 35 36 34 34 34 33 32 29 32 33 31 30 27 29 33 33 36 40 44 38 33 25
63 62 57 58 56 52 46 43 47 52 52 49 48 44 42 43 49 47 40 34 32 34 36 40 39 38 37 36 38 39 40 41 35 32 29 29 29 33 41 41 44 37 32
71 63 60 57 52 46 40 44 49 49 51 48 46 48 55 59 61 60 55 43 42 36 38 41 38 36 40 45 45 47 47 44 43 41 35 31 31 36 37 41 41 38 36
74 55 54 50 42 39 41 46 47 49 52 51 46 50 63 59 65 66 62 54 50 41 42 43 40 42 46 46 46 47 45 40 38 36 36 34 32 31 36 34 39 41 41
58 50 48 44 43 42 45 46 47 48 52 49 57 56 63 66 70 68 70 71 61 51 45 42 43 45 47 46 48 46 43 44 45 41 39 37 33 34 32 33 31 34 39
59 46 44 43 43 47 45 44 47 47 49 51 51 57 62 64 71 69 66 73 76 67 52 47 44 49 49 47 41 40 44 46 46 45 43 42 38 33 35 31 28 28 35
53 44 44 46 50 49 51 50 50 45 46 47 52 54 59 60 64 65 72 77 80 67 54 46 46 48 45 39 34 39 49 50 48 50 48 47 47 44 42 39 31 23 23
57 45 48 52 53 56 54 51 48 47 47 48 48 51 54 60 66 72 75 75 56 50 47 42 43 40 39 38 39 48 53 52 53 56 58 57 60 58 54 49 45 37 28
48 49 53 57 58 59 54 53 45 45 45 45 44 47 53 60 63 65 53 44 41 44 44 43 39 37 41 44 55 59 62 62 61 65 65 66 66 67 66 62 59 55 41
55 59 59 59 60 62 58 55 49 47 47 46 46 46 48 48 47 43 38 42 42 40 42 41 39 40 47 57 61 66 66 70 75 73 71 69 69 73 75 76 69 63 51
68 62 62 64 64 61 55 52 51 55 50 47 47 47 44 40 39 42 43 41 41 40 38 40 44 48 57 65 70 70 73 76 76 69 57 59 61 63 74 81 78 71 59
69 68 68 63 67 58 54 54 54 46 42 40 36 39 40 40 41 43 45 44 41 40 42 45 47 53 63 64 74 80 80 82 68 64 66 66 72 74 74 81 87 79 72
78 66 63 62 64 59 51 52 48 46 38 35 37 41 41 42 47 49 46 42 41 42 45 53 56 64 73 80 85 83 80 77 58 61 72 64 76 75 83 92 97 96 88
69 66 64 63 63 62 51 51 47 46 36 39 42 43 43 48 48 46 41 39 34 38 50 55 61 72 76 84 81 76 77 67 60 62 68 63 73 74 84 93 98 93 82
69 66 62 56 63 62 50 50 52 53 42 44 46 46 45 50 44 40 36 33 31 34 43 57 64 68 78 84 81 83 82 66 68 76 82 81 79 76 82 85 86 82 83
68 66 59 57 61 60 53 49 57 53 50 46 46 45 46 48 42 39 36 32 32 34 42 53 53 64 83 87 87 86 85 74 77 85 91 90 85 84 82 81 83 80 78
66 64 63 61 60 56 53 58 60 55 48 49 47 46 46 46 41 38 34 32 32 36 37 47 57 74 88 90 88 87 90 76 78 84 89 95 92 92 91 97 90 89 81

GFSMA_prec_cthk_039.txt.gz
RH
65 67 67 66 68 69 68 66 64 52 44 41 39 38 33 29 27 27 26 26 28 26 29 31 29 26 25 21 18 16 15 15 16 18 19 19 19 22 27 29 28 28 29
71 72 70 68 70 68 66 65 48 39 39 38 35 29 26 27 26 26 26 25 25 25 29 30 29 29 29 27 25 25 23 21 17 16 17 17 18 18 19 23 26 27 28
69 68 66 65 68 61 57 43 38 39 39 36 31 27 28 27 27 26 26 27 28 33 37 38 34 33 32 32 33 32 30 30 28 23 23 23 22 20 17 18 21 25 26
66 62 60 60 55 46 40 38 39 42 41 36 30 30 29 28 28 28 29 31 34 39 39 39 39 39 38 37 36 34 33 38 39 40 34 31 26 23 18 13 17 20 24
62 56 55 46 40 40 40 42 45 45 40 33 31 30 30 29 31 32 34 37 42 44 44 43 42 41 40 39 38 38 38 36 38 39 38 39 34 26 23 21 14 13 19
57 48 42 42 44 47 48 49 50 45 39 34 33 31 33 31 32 33 33 35 40 42 41 40 40 39 37 35 34 34 35 37 44 44 41 36 33 32 32 23 23 20 13
43 44 46 50 52 52 54 53 48 42 36 35 31 32 33 32 28 30 32 33 35 38 39 39 38 36 35 36 36 36 33 34 31 36 42 37 27 26 32 33 26 24 22
49 51 53 52 54 57 56 51 44 39 37 34 35 36 34 33 33 32 29 29 32 32 35 36 38 40 40 38 36 32 26 26 25 30 33 32 31 29 31 33 32 28 24
51 53 55 55 56 55 51 48 44 38 36 37 41 41 39 37 34 34 32 31 27 28 28 29 31 32 34 34 31 28 26 26 25 29 29 29 32 34 36 39 39 38 32
56 58 57 61 61 55 49 48 44 39 38 41 44 44 46 44 41 38 40 40 38 37 34 32 29 33 34 31 30 30 29 28 30 30 31 31 34 38 38 38 39 42 42
57 56 61 67 63 55 49 44 42 39 43 48 48 50 48 42 43 44 41 41 45 47 44 36 36 34 33 34 32 30 33 35 35 34 34 37 37 38 39 40 43 41 37
63 62 66 68 62 56 47 42 36 41 44 44 45 45 44 47 52 54 53 48 50 46 44 39 38 41 40 38 34 35 37 38 37 36 37 36 35 36 37 39 41 42 43
60 66 75 70 67 57 42 36 42 46 45 45 48 51 55 56 57 58 61 59 56 46 46 43 47 49 50 43 38 39 39 37 35 35 35 35 38 39 39 40 41 39 40
69 68 68 66 59 56 50 39 45 47 46 48 51 54 55 56 64 60 67 68 63 55 41 46 53 50 47 43 44 43 40 36 34 33 33 38 39 40 39 40 39 41 40
79 66 56 61 64 48 40 46 52 50 50 54 57 50 53 56 62 58 58 60 64 64 44 52 51 45 45 44 42 40 36 33 31 32 37 41 41 42 41 43 44 44 45
86 78 62 65 58 48 52 57 53 55 61 61 54 49 52 55 57 56 58 60 67 70 59 50 43 42 40 38 37 34 33 33 36 41 42 42 43 47 48 48 49 47 46
88 73 59 60 52 51 61 58 58 54 55 51 51 50 53 55 52 51 51 54 57 57 47 37 36 35 35 33 32 33 37 43 47 51 49 49 50 50 50 52 52 50 47
86 72 50 60 64 64 66 59 63 59 53 52 51 51 48 46 43 42 42 39 37 37 37 33 34 33 31 34 38 40 45 50 52 55 57 58 62 65 68 66 65 63 62
72 57 70 72 71 66 63 65 65 58 56 54 52 49 47 41 37 35 35 36 35 37 37 38 33 32 35 39 41 48 52 52 58 61 63 64 61 61 60 59 58 66 71
70 76 76 80 67 67 70 65 62 58 57 55 51 49 43 36 33 34 35 36 38 36 36 34 32 37 41 44 53 57 58 64 62 64 63 63 63 54 53 53 54 56 65
75 83 79 72 70 72 73 66 64 65 58 52 49 39 32 34 36 38 37 38 38 36 35 33 32 41 45 51 59 64 68 64 63 60 58 51 49 51 52 55 59 62 64
87 82 80 75 75 75 73 71 67 60 60 52 41 34 36 37 39 38 40 40 39 35 31 28 36 43 50 59 61 70 71 68 63 61 58 44 54 50 51 55 64 80 89
87 80 81 81 75 73 68 69 65 60 60 52 47 38 40 42 41 41 41 40 34 33 31 32 39 49 54 59 66 75 74 76 73 68 64 60 64 59 59 60 73 82 91
87 83 82 79 75 67 66 64 64 61 57 58 57 46 45 45 42 42 40 36 33 32 31 33 42 47 51 57 77 84 80 76 72 67 71 68 68 69 67 67 76 84 87
83 80 78 74 67 61 64 63 60 56 60 64 60 50 46 48 44 42 41 36 31 32 34 36 41 50 56 70 85 88 84 76 72 66 68 78 76 78 75 75 86 87 89
76 71 65 64 63 62 61 58 52 54 61 63 60 50 50 49 46 43 42 35 32 33 34 36 40 48 56 70 88 89 86 80 79 78 79 81 84 86 82 80 85 88 87

GFSMA_prec_cthk_042.txt.gz
RH
60 62 62 65 65 62 60 60 58 49 39 35 34 31 26 24 24 24 23 23 24 26 29 31 32 34 34 31 28 25 23 20 17 16 16 16 16 20 20 18 21 24 26
65 65 67 65 59 58 58 58 49 39 36 36 35 28 25 25 24 23 23 25 27 29 33 35 36 36 36 36 35 34 35 34 28 27 24 22 20 18 20 20 18 19 23
59 59 59 60 59 58 57 47 39 37 39 39 35 29 28 27 25 24 25 27 30 35 38 38 38 39 39 40 38 37 37 37 37 36 32 28 25 21 17 19 17 17 19
52 57 57 57 59 55 43 39 39 41 42 41 35 32 31 28 28 28 31 32 33 38 40 41 40 41 41 40 42 42 41 38 38 39 40 37 32 30 24 21 23 22 16
52 56 57 57 48 42 41 42 46 47 44 41 38 36 34 30 29 32 33 35 35 39 42 40 39 39 39 39 39 40 39 39 39 39 38 38 35 34 34 25 23 25 24
50 53 52 45 43 45 48 50 50 48 45 44 41 37 34 32 32 31 33 35 37 39 39 37 36 35 34 32 31 32 33 35 36 35 34 37 38 33 27 25 26 24 25
48 45 44 45 48 52 53 51 53 47 45 41 39 38 35 35 36 37 35 33 33 32 33 35 35 35 34 33 32 33 33 35 36 32 29 28 31 29 30 29 28 30 24
42 44 48 50 53 55 55 55 49 46 45 39 38 37 37 39 39 39 39 38 34 32 33 32 32 32 30 29 29 30 29 30 30 29 28 30 33 38 33 30 30 29 31
47 49 52 54 57 59 62 60 52 47 47 41 38 41 43 45 42 42 39 37 39 40 40 40 39 37 36 35 31 28 27 27 27 27 26 27 32 38 39 39 38 37 33
50 55 56 58 59 64 67 64 61 59 59 49 43 45 49 51 49 45 44 45 42 45 47 44 38 36 33 31 27 26 26 27 29 27 28 30 33 38 39 49 44 42 39
56 59 60 61 61 66 67 65 66 64 59 50 45 44 47 47 47 48 46 43 48 48 48 47 44 43 42 38 34 31 30 29 29 28 30 32 34 40 42 50 50 45 39
60 60 63 68 72 69 69 64 60 52 44 43 43 46 49 50 47 52 47 48 51 47 52 53 50 49 44 39 40 40 42 35 28 30 32 37 36 37 41 44 51 51 43
67 77 84 81 75 74 76 68 53 48 50 52 49 49 50 54 56 56 56 57 55 47 48 50 51 49 46 47 48 45 38 35 34 36 37 38 35 32 33 40 44 44 43
84 82 85 87 81 79 69 64 52 49 53 54 53 54 56 61 59 53 56 57 58 48 37 40 44 49 52 54 46 42 38 37 37 35 32 28 28 31 37 40 44 45 45
79 96 82 73 82 75 72 65 53 54 58 59 60 57 62 60 58 61 66 62 59 55 43 42 45 46 47 37 33 33 31 29 28 27 26 28 35 41 43 45 47 46 46
82 78 82 86 78 70 67 54 59 64 63 62 58 58 57 61 63 62 59 57 55 57 45 41 35 30 30 28 27 29 28 27 26 28 32 36 39 43 46 48 47 46 46
86 80 85 77 65 62 54 64 70 64 63 63 60 60 62 62 57 52 50 48 46 43 37 29 29 28 28 28 26 26 28 31 34 37 39 41 44 46 46 48 49 49 48
77 78 77 70 71 68 75 73 67 72 71 68 62 61 63 59 52 48 45 40 36 34 34 33 31 29 27 25 29 30 32 35 39 42 45 47 49 49 51 50 51 51 49
78 80 76 76 79 76 72 71 71 73 74 74 70 65 61 55 53 45 39 34 33 36 36 34 30 28 25 28 32 35 39 42 46 48 48 48 51 53 55 55 54 53 50
79 81 84 85 80 80 80 78 83 79 81 76 71 68 63 58 42 34 34 34 37 38 36 33 29 27 26 30 38 41 39 45 51 53 52 54 56 56 55 53 51 50 46
87 86 86 84 88 82 82 84 80 79 81 78 70 66 60 47 36 36 37 38 40 38 35 31 29 26 28 34 42 45 46 51 58 58 62 62 58 55 50 46 44 42 42
91 92 91 87 84 84 84 82 81 76 78 78 71 64 56 52 42 41 42 42 42 39 35 33 29 29 32 40 44 47 52 63 67 65 64 55 62 54 57 52 46 44 44
92 91 86 84 80 82 78 76 72 72 68 66 62 57 56 57 49 46 46 45 44 40 37 32 31 33 34 41 44 51 66 72 72 65 62 56 60 54 58 59 56 53 51
91 82 80 76 71 66 63 64 60 59 58 54 57 60 64 63 50 49 47 46 42 40 35 34 34 34 38 45 51 61 74 78 72 68 68 63 69 61 62 65 62 68 65
74 65 59 56 57 51 47 47 48 52 54 57 57 62 66 64 54 52 50 46 42 39 36 36 38 37 39 45 52 60 75 80 72 73 77 80 77 64 67 68 67 74 77
54 51 49 44 38 34 38 44 49 50 53 57 60 64 64 57 56 55 52 46 44 41 38 38 40 40 39 43 49 56 72 85 82 75 79 79 78 74 68 77 81 78 77

GFSMA_prec_cthk_045.txt.gz
RH
57 62 63 62 64 69 64 56 54 50 42 36 34 33 28 25 23 22 21 21 22 24 31 34 35 37 36 37 37 35 32 28 30 29 23 21 19 19 17 15 16 17 17
58 62 63 61 58 60 56 54 54 45 38 37 37 32 27 26 25 23 21 22 24 26 32 34 35 37 37 37 38 37 37 36 35 32 27 25 25 23 20 18 18 15 16
58 60 55 58 59 59 57 55 47 40 40 40 37 30 30 29 28 25 25 26 27 29 33 35 38 38 36 39 38 36 35 35 34 35 35 34 29 26 27 24 24 24 21
58 55 57 61 61 60 56 48 43 42 43 42 36 35 35 33 31 29 29 30 32 36 38 39 38 37 37 37 39 40 41 39 38 38 36 34 34 33 25 24 25 25 26
55 54 56 59 60 54 46 43 43 46 44 38 37 37 38 35 33 32 31 32 34 38 41 40 39 38 37 37 37 37 36 37 38 39 37 32 29 32 30 23 22 22 23
51 50 52 57 49 42 42 43 48 47 40 38 38 41 42 37 35 34 34 34 36 36 36 36 34 33 33 34 34 34 34 35 33 32 30 30 29 28 25 25 28 25 22
48 49 51 42 39 41 45 49 51 48 44 45 46 46 45 46 44 43 41 40 40 35 35 34 33 33 33 31 29 28 29 28 30 31 32 31 29 29 31 27 26 27 29
46 45 41 41 44 47 50 52 53 54 53 53 55 55 56 55 53 51 51 49 47 45 43 42 42 40 38 37 37 33 32 29 30 31 29 29 32 31 31 38 33 29 29
47 45 44 47 50 54 55 56 60 63 60 59 63 60 53 51 53 55 54 52 53 52 48 49 48 46 45 44 43 39 36 33 29 29 29 31 32 32 33 34 38 42 35
47 47 49 53 60 62 65 75 76 73 67 65 66 57 56 55 57 59 56 53 54 51 53 56 53 53 50 49 45 40 36 33 29 28 29 32 33 31 35 37 36 39 48
49 53 57 65 71 77 77 84 86 80 73 72 63 62 57 52 55 58 55 55 54 60 59 56 53 51 55 55 51 46 40 36 32 32 29 31 32 31 37 40 39 39 43
57 64 76 82 82 85 91 91 71 66 71 63 62 62 56 56 57 61 60 61 58 54 50 55 60 62 59 50 44 40 40 40 41 41 35 31 33 35 37 40 42 41 40
75 82 86 89 90 77 91 87 75 76 65 68 61 55 58 60 64 64 64 65 58 54 56 60 64 60 55 50 44 42 42 42 40 34 31 30 30 33 31 30 32 34 40
86 87 86 89 96 89 90 81 80 74 72 62 56 60 68 64 62 63 67 63 63 64 63 64 63 61 53 41 35 30 25 23 22 23 25 24 26 30 30 32 36 37 40
89 97 87 89 90 92 94 75 73 65 56 58 65 71 64 62 67 67 66 69 73 71 64 59 54 46 35 26 22 21 21 22 22 25 27 27 31 34 39 40 41 43 44
96 75 72 86 97 84 71 71 62 62 68 73 74 70 65 69 70 68 67 64 63 62 54 47 41 32 27 23 23 24 24 24 24 26 27 30 33 37 42 44 46 46 46
74 82 91 77 75 74 75 74 75 80 80 76 74 70 67 66 68 68 67 68 63 57 49 35 29 26 25 25 24 22 24 24 26 29 31 33 36 40 39 42 44 47 47
85 81 81 82 82 85 87 83 83 77 73 74 76 76 70 72 73 69 65 59 56 49 39 31 27 27 26 25 23 21 24 27 31 33 34 35 38 41 43 47 47 50 50
86 90 85 86 89 90 89 82 78 76 76 76 75 79 79 73 68 68 63 52 42 40 38 34 32 30 26 25 23 24 27 30 32 33 38 43 47 48 46 47 49 49 49
83 88 89 92 94 92 88 87 83 80 77 79 77 73 74 70 67 61 51 42 40 40 39 38 35 32 29 26 27 29 28 33 33 42 47 54 54 54 54 51 50 48 46
85 88 93 92 94 95 87 82 78 75 71 63 60 61 61 61 51 51 51 47 44 42 42 40 37 34 30 28 30 32 35 36 42 53 53 59 60 57 55 51 50 47 44
95 93 93 96 94 85 78 72 58 51 44 44 47 45 46 50 54 59 61 54 48 46 43 41 40 34 32 31 30 33 40 45 52 61 60 60 56 53 53 53 53 51 47
96 98 93 81 63 58 49 36 30 32 36 39 46 49 53 54 57 64 66 61 52 49 45 43 39 35 33 33 32 34 44 50 62 66 64 61 65 63 64 59 53 51 50
92 83 72 49 39 29 25 26 30 34 37 41 48 52 55 57 61 65 69 60 56 53 47 43 39 36 36 35 35 38 45 50 60 69 69 67 70 68 69 67 56 54 59
72 48 33 24 22 21 22 25 30 35 40 44 47 49 52 59 64 68 60 59 60 55 48 42 42 40 41 41 38 36 41 50 55 70 73 77 73 66 67 68 72 68 68
28 19 18 19 19 20 25 29 33 39 44 46 50 52 56 62 67 68 66 63 63 59 47 48 46 44 45 44 42 41 41 48 59 65 79 78 77 83 71 67 71 79 79

GFSMA_prec_cthk_048.txt.gz
RH
61 61 67 65 63 62 61 59 55 44 41 38 34 32 30 27 25 25 23 21 23 22 28 31 31 32 33 34 35 35 33 31 31 30 29 28 29 28 23 20 17 15 14
63 63 61 63 59 59 60 58 51 45 42 38 37 35 30 28 27 27 25 23 24 25 29 30 32 35 35 36 36 36 36 37 36 34 34 33 30 27 27 28 22 22 24
62 63 61 59 58 58 59 58 49 46 41 41 41 35 30 28 28 28 26 26 27 30 32 34 34 36 37 38 38 37 37 36 35 35 36 35 33 30 24 23 23 23 25
66 59 57 57 56 56 58 54 47 44 43 44 39 33 31 29 28 29 30 29 31 33 34 37 39 40 38 37 36 37 35 35 36 32 36 33 28 27 23 23 21 21 21
51 55 51 55 54 59 53 46 45 46 47 44 40 37 35 34 33 33 34 36 37 36 36 35 38 39 37 36 33 31 31 31 34 35 34 33 32 30 25 22 20 20 20
51 52 51 53 56 55 44 44 49 50 46 42 40 40 39 40 40 43 45 46 42 40 38 36 37 37 37 34 33 32 35 36 38 37 36 35 33 32 30 30 28 22 23
51 51 50 53 54 46 43 48 52 47 47 45 45 47 47 44 47 52 52 51 51 47 46 44 42 42 41 40 39 38 38 37 34 33 31 30 30 30 31 31 31 36 31
54 53 54 53 46 44 47 53 50 53 57 63 63 62 59 53 53 52 56 58 55 52 50 53 54 53 49 48 47 46 43 38 36 35 35 35 35 30 29 32 31 31 38
56 54 53 45 46 47 51 55 62 66 71 73 73 66 64 56 61 63 59 61 58 59 61 56 54 55 56 58 57 55 50 47 43 40 40 37 38 38 36 36 33 31 35
56 53 49 49 53 59 66 71 75 80 76 81 78 71 64 63 64 62 59 58 58 60 61 57 57 60 62 64 62 59 54 51 46 45 44 43 43 42 40 37 34 32 30
63 59 58 63 67 69 75 80 85 86 94 90 77 67 65 62 66 64 60 57 63 67 66 64 63 64 63 61 60 59 55 50 46 44 41 40 42 41 38 35 31 32 33
67 66 70 75 77 81 89 85 86 95 85 80 74 73 68 64 62 63 59 64 67 65 63 61 62 62 62 66 63 60 59 53 49 48 43 35 28 27 30 32 31 31 31
72 75 83 90 88 92 93 88 82 81 86 82 71 68 62 61 60 64 71 70 64 61 64 64 65 66 67 68 64 64 56 47 38 29 21 18 17 19 24 24 25 31 33
83 85 89 94 92 84 78 85 87 78 71 71 64 63 67 69 66 66 64 63 65 64 58 63 66 64 60 59 54 46 38 32 24 20 18 17 18 20 26 28 35 36 34
85 95 90 86 76 80 89 92 80 73 70 69 69 72 75 71 65 64 64 66 67 61 55 62 65 64 59 52 47 38 29 24 21 21 21 21 23 28 29 34 37 37 36
83 83 81 83 88 97 89 81 78 76 76 80 78 74 69 67 65 64 59 59 63 66 63 60 56 54 51 45 35 28 24 22 21 21 22 24 25 30 31 33 36 37 41
88 91 93 94 87 87 86 88 83 87 81 78 78 73 73 72 66 54 57 54 50 49 45 42 43 41 37 31 27 26 25 23 23 24 26 28 28 28 30 31 33 38 42
91 90 95 89 86 86 92 91 93 84 82 80 75 73 64 55 44 40 39 39 40 38 35 32 34 34 34 31 28 27 27 27 27 28 30 28 29 33 36 38 37 39 43
90 90 86 96 92 94 97 96 89 87 78 71 53 46 35 35 37 41 42 44 42 42 42 38 36 36 34 32 29 29 28 28 30 31 33 34 37 42 43 44 44 42 42
92 87 89 89 95 94 96 94 86 74 65 48 32 31 32 35 36 42 47 50 48 50 49 44 41 40 36 32 31 29 28 30 31 36 41 42 46 47 47 49 50 48 47
85 84 86 92 96 97 93 79 66 56 43 29 28 31 34 40 44 47 50 51 53 57 56 51 46 42 36 34 32 33 32 31 33 39 43 47 49 47 49 51 48 46 46
87 90 92 95 95 88 72 60 51 37 25 25 29 34 38 44 47 53 53 53 59 61 62 55 52 44 39 36 35 36 34 35 38 42 43 51 50 53 59 60 57 53 50
94 96 98 90 74 59 40 32 24 22 23 27 32 37 42 46 54 55 55 57 62 65 62 56 54 47 41 39 39 38 37 37 40 46 42 50 54 60 66 63 60 56 55
98 97 82 63 41 27 22 21 21 23 25 29 36 42 47 53 55 54 57 61 64 59 60 60 56 49 43 44 41 41 41 37 33 44 47 44 61 65 64 64 66 70 67
86 72 50 28 18 17 18 19 22 25 28 34 42 49 52 53 58 59 60 66 65 66 63 63 59 49 46 47 46 46 44 40 32 34 54 49 59 67 65 62 68 75 74
57 33 18 16 15 15 19 22 26 30 34 39 48 54 56 53 58 61 65 72 73 72 68 66 61 52 51 51 49 49 47 43 38 32 45 56 63 70 68 65 73 76 74

GFSMA_prec_cthk_051.txt.gz
RH
56 62 66 68 67 65 64 60 57 55 43 39 35 35 31 26 26 25 24 24 23 24 28 30 30 31 31 31 32 33 33 32 32 31 32 31 30 28 28 28 19 17 16
69 66 71 68 63 60 58 57 58 47 43 40 38 36 32 29 26 25 24 23 23 26 31 30 33 34 34 34 34 33 35 37 35 34 32 31 30 27 27 26 25 22 21
66 68 70 66 59 57 54 55 55 46 44 40 40 36 33 32 30 29 28 30 30 32 37 39 39 39 38 36 34 36 38 38 38 37 35 40 34 28 28 26 24 22 22
77 76 67 60 55 54 53 55 51 46 42 41 38 35 33 34 33 32 31 32 35 39 42 41 40 40 39 38 37 38 37 37 39 40 39 38 35 32 30 26 24 22 21
67 59 58 53 53 53 54 53 47 43 42 39 39 38 39 39 37 36 38 40 39 39 40 41 41 40 38 37 38 38 40 40 40 42 41 40 39 37 36 34 29 26 24
54 51 55 54 53 54 53 49 42 42 42 41 44 48 49 48 45 45 46 43 43 44 42 42 42 42 41 40 40 40 44 43 41 42 42 42 41 38 37 35 35 34 33
54 52 54 53 52 53 50 46 43 45 46 52 57 59 56 53 51 52 51 48 47 50 49 48 47 46 45 47 49 48 47 50 50 48 48 46 43 40 37 37 37 35 36
62 57 56 53 53 52 51 49 53 53 58 61 65 69 71 68 64 59 54 54 50 51 54 54 51 50 51 53 53 53 52 50 49 50 50 49 47 47 47 46 43 42 44
70 65 64 61 59 57 54 60 62 63 70 72 75 78 76 76 73 66 62 59 54 55 57 56 57 57 56 56 55 54 55 56 56 54 56 54 54 52 49 49 49 50 49
73 73 74 68 65 64 64 70 71 75 80 84 79 79 73 69 67 63 64 61 56 58 58 59 61 58 57 55 53 52 51 51 53 53 51 52 51 55 54 53 53 50 48
82 82 75 69 73 71 71 79 82 87 91 93 85 77 68 64 62 63 61 62 60 60 62 62 55 49 44 46 46 44 45 44 43 44 44 44 49 52 56 55 51 46 47
86 82 77 79 80 78 80 88 94 96 91 88 86 78 71 68 63 63 60 61 64 62 58 52 43 38 40 41 46 48 50 49 52 54 47 39 37 37 40 41 43 46 43
90 87 86 87 87 90 94 93 91 88 91 88 78 72 66 65 64 63 63 58 57 54 49 45 36 38 42 46 51 51 52 58 52 47 43 39 37 35 35 37 33 32 36
94 92 91 91 93 93 88 87 90 91 87 83 75 70 70 72 71 59 59 52 41 39 40 41 44 36 34 34 35 37 35 36 35 31 28 27 26 26 25 29 27 28 32
96 95 94 93 93 93 95 91 94 91 83 78 82 79 76 69 60 57 46 39 35 38 32 33 35 32 28 29 28 26 23 21 20 19 19 19 18 18 18 22 26 28 33
97 97 92 96 99 96 97 95 91 85 89 90 84 76 68 62 55 48 41 33 30 31 31 35 37 33 31 31 30 27 25 23 23 23 22 21 22 22 23 27 28 29 30
95 95 97 96 95 91 98 93 94 95 89 83 79 71 64 57 53 39 31 28 34 37 39 36 38 38 35 35 36 32 28 27 26 25 25 25 24 24 25 24 26 32 35
95 97 95 98 94 95 89 92 97 90 81 79 70 64 57 49 39 29 30 33 36 41 44 42 45 43 41 39 37 33 31 30 29 28 27 27 28 28 30 33 35 36 37
88 87 94 92 91 97 95 92 91 85 83 71 62 53 37 30 29 31 34 36 40 44 48 47 47 49 47 45 42 39 36 32 31 29 29 30 33 35 39 41 40 42 40
81 80 85 87 89 97 94 94 90 81 71 62 40 28 27 28 30 35 40 42 48 53 54 50 51 53 54 50 46 40 38 36 35 34 34 35 37 40 43 43 44 42 41
77 79 78 90 96 96 97 91 83 70 55 35 26 26 26 29 33 39 45 49 56 59 57 54 55 59 59 54 48 43 40 37 40 41 41 45 43 48 49 46 47 50 50
76 76 87 93 95 96 95 81 64 47 31 25 24 23 25 30 36 42 52 59 64 62 57 60 60 62 56 58 51 47 43 42 43 42 39 37 44 47 54 55 58 55 53
83 88 94 97 98 88 69 54 38 25 24 23 22 24 28 32 41 50 56 61 58 57 60 62 59 59 60 62 53 49 46 46 47 43 41 34 43 47 59 59 60 58 58
89 92 92 83 73 56 37 24 21 21 21 20 22 25 29 36 48 56 61 61 58 58 61 60 62 63 63 62 53 50 51 48 48 47 43 36 40 46 55 60 61 62 61
81 78 71 58 37 24 20 18 19 19 20 21 25 30 37 46 51 57 57 57 60 59 66 65 67 65 64 62 55 53 53 52 51 51 45 41 41 44 56 63 67 64 63
67 56 36 26 22 19 16 17 19 22 23 26 30 37 42 47 48 54 58 58 60 63 71 71 72 68 66 64 59 53 55 53 55 53 48 43 39 47 56 69 73 71 67

GFSMA_prec_cthk_057.txt.gz
RH
68 66 63 65 67 69 67 67 62 58 50 39 34 35 33 30 30 31 32 26 24 27 31 36 35 35 34 35 34 34 34 36 34 36 36 35 34 31 28 28 26 19 17
69 67 66 72 73 71 69 63 55 54 44 38 36 34 33 32 32 33 37 34 28 31 35 35 38 40 40 39 37 37 37 38 39 40 39 40 40 38 36 36 34 31 22
67 65 72 76 76 74 67 59 53 50 43 39 37 35 35 38 39 41 42 43 42 39 37 38 38 39 40 39 39 38 38 38 37 37 39 42 44 45 46 44 42 39 36
64 76 76 77 75 70 61 56 51 49 45 41 37 38 41 44 45 46 47 48 51 49 49 46 43 41 40 38 36 36 38 38 39 40 41 48 48 47 48 48 49 48 46
77 75 78 81 77 67 58 56 51 50 46 43 40 44 48 51 51 49 49 51 50 47 48 43 42 38 35 36 36 36 38 39 40 41 42 46 45 46 46 44 42 44 48
81 80 81 79 69 60 54 51 49 50 53 49 45 46 52 56 55 53 55 56 51 51 50 52 47 44 43 44 44 39 38 40 37 35 41 41 40 39 39 38 42 45 45
82 78 71 64 57 55 57 54 51 60 61 57 54 56 58 57 60 62 61 60 58 56 54 54 51 51 49 45 44 43 40 36 29 28 27 27 27 31 34 34 35 37 42
80 76 69 76 68 67 68 66 63 66 66 65 59 62 67 69 66 65 66 65 63 64 62 58 54 55 55 53 49 44 40 35 26 21 22 25 28 34 35 36 40 43 43
84 91 91 91 86 83 76 76 74 74 75 70 66 68 75 77 81 79 67 67 71 69 66 62 57 58 59 54 49 44 36 24 21 20 20 22 25 27 32 35 42 46 46
83 89 93 98 97 90 82 84 87 84 83 77 72 75 79 85 87 82 85 79 71 66 67 62 62 61 56 50 41 34 27 21 19 17 19 19 20 22 26 27 31 34 36
80 82 83 92 98 97 94 94 94 90 88 81 78 80 82 90 89 87 83 78 75 71 68 65 63 59 47 37 34 31 25 22 19 18 17 17 16 15 17 20 21 22 30
68 78 88 90 97 96 98 97 96 91 88 86 90 87 89 94 91 86 83 79 72 72 71 65 57 48 41 36 34 30 26 21 18 16 15 14 13 13 13 19 23 23 31
81 77 84 91 99 97 99 98 96 97 94 91 91 93 93 94 92 91 83 78 74 72 63 57 51 49 44 41 37 31 26 22 21 19 19 17 16 14 15 16 20 26 29
78 79 87 92 88 96 98 97 98 97 93 94 95 95 90 91 90 85 85 82 71 61 59 54 48 43 41 41 40 38 36 32 29 26 23 20 17 17 17 18 20 27 29
84 86 89 96 96 94 98 98 97 97 96 96 96 90 92 93 87 85 85 79 67 61 58 50 43 39 41 42 44 42 39 36 35 30 27 22 19 18 20 21 21 22 29
83 87 91 93 95 97 97 96 97 98 97 95 93 90 85 84 84 90 83 75 68 62 51 43 37 39 45 45 47 42 40 38 36 35 31 26 23 23 22 22 23 24 28
79 86 93 94 97 94 86 94 98 91 91 86 84 82 81 91 93 87 80 75 62 50 44 37 40 43 45 51 52 51 48 46 45 44 36 30 27 26 24 24 26 27 27
69 74 81 96 86 80 86 86 78 84 82 86 81 82 89 92 88 83 74 58 46 41 41 39 37 43 49 53 55 57 54 48 48 47 40 35 31 29 26 28 30 29 29
62 69 72 74 76 72 66 77 77 74 74 79 85 90 92 90 82 69 52 46 43 44 47 50 50 50 53 56 60 62 60 54 53 47 41 39 36 37 33 34 36 36 35
62 68 69 67 68 71 75 75 80 78 82 87 90 87 80 69 55 47 45 44 42 41 47 59 60 57 67 61 64 66 63 59 60 54 49 49 44 42 41 43 42 40 41
66 64 63 67 69 71 71 73 80 86 86 84 78 66 55 43 40 39 38 32 34 38 42 50 60 68 69 74 77 70 70 67 61 60 56 58 55 50 43 46 51 49 46
58 58 61 66 68 70 77 80 84 80 70 61 50 43 39 37 38 41 44 41 38 36 35 42 46 62 70 81 88 74 78 73 63 70 65 62 59 48 50 51 54 46 45
56 58 60 65 71 72 72 66 60 52 42 36 33 33 36 34 36 37 36 39 39 43 53 51 53 55 65 78 83 75 77 74 72 71 71 61 59 56 56 56 55 47 44
55 58 62 63 62 62 54 46 38 33 31 30 29 31 33 33 32 35 41 41 40 47 57 63 66 66 73 76 73 79 78 75 73 71 76 70 67 62 57 55 53 48 45
57 59 56 52 47 44 41 37 33 30 28 29 30 29 28 29 30 32 33 35 34 38 42 61 75 80 83 82 75 82 83 82 75 78 81 75 70 62 59 56 58 54 48
50 46 42 39 39 41 42 40 33 29 24 22 22 22 21 20 19 20 27 32 37 42 49 58 76 82 84 78 77 90 90 86 82 81 82 80 74 69 60 62 62 56 50

GFSMA_prec_cthk_060.txt.gz
RH
75 73 66 65 69 65 68 67 64 59 51 38 34 33 32 31 30 27 30 28 25 27 32 35 35 34 34 33 33 34 34 34 34 36 37 37 38 38 36 36 35 31 27
77 71 70 70 67 70 69 69 64 52 46 39 32 34 32 31 30 35 37 37 36 33 38 38 38 39 38 35 35 34 34 34 33 34 36 36 37 37 38 39 39 39 39
73 75 73 70 72 76 75 70 57 50 48 39 34 32 34 36 38 42 42 41 41 43 40 39 36 35 34 34 36 36 36 36 36 38 38 38 38 39 38 38 38 39 39
73 69 65 68 80 80 71 63 58 52 48 41 36 33 36 40 42 46 48 45 46 48 46 45 44 42 40 38 37 35 34 33 32 34 38 36 34 33 32 32 32 32 34
63 61 73 75 80 78 69 58 54 51 49 46 42 43 43 46 47 50 49 49 51 49 47 47 43 45 42 42 41 41 37 33 34 38 37 33 31 28 26 26 23 25 30
59 66 76 80 82 75 61 56 55 53 52 54 56 47 48 51 54 55 57 57 57 60 54 47 51 49 46 45 45 41 40 41 39 36 32 28 26 25 24 26 29 30 30
81 84 81 82 75 63 59 59 62 62 64 62 62 63 58 60 63 61 59 63 63 56 58 61 60 55 51 49 43 45 44 41 35 29 24 27 25 29 30 30 30 30 32
79 85 84 84 75 77 74 68 75 77 76 72 73 71 67 69 67 66 67 65 64 66 67 62 58 57 56 52 50 48 45 38 32 28 23 19 23 23 24 28 30 30 31
80 83 81 80 83 88 92 89 87 84 85 83 79 81 76 75 70 76 75 74 70 68 71 66 62 60 61 56 53 47 38 35 32 29 24 19 18 18 21 21 22 23 26
61 68 80 83 87 88 89 92 92 94 91 88 86 89 84 78 82 88 87 83 78 74 71 67 64 65 66 56 51 46 38 33 30 27 25 21 18 15 22 21 20 20 20
62 61 69 68 80 82 86 92 97 96 96 92 86 88 89 89 92 91 88 89 84 75 72 68 67 66 62 56 50 43 35 33 31 29 25 21 17 16 19 22 21 21 20
74 69 77 78 78 79 88 94 98 97 96 98 98 94 94 92 94 92 91 88 79 79 77 77 75 67 62 58 47 40 36 32 29 27 24 22 20 19 17 18 20 21 21
75 74 77 79 80 86 92 95 98 98 98 98 98 97 95 96 94 97 95 88 77 76 77 79 71 67 59 51 49 46 40 31 29 27 25 23 24 23 19 15 15 18 23
77 75 82 84 86 91 96 94 93 94 98 97 98 97 95 97 97 96 97 87 75 75 78 75 68 61 55 49 45 41 36 34 33 31 28 28 27 26 22 17 16 16 20
72 75 77 78 84 89 92 92 91 93 96 97 98 97 95 96 93 91 91 86 83 80 76 70 58 51 46 43 40 37 38 38 36 36 34 32 31 32 27 22 20 18 19
72 76 79 76 75 77 82 89 88 86 87 84 83 84 82 78 82 86 86 83 84 80 68 61 47 39 38 37 41 44 46 45 43 42 40 38 37 36 32 28 25 22 22
68 67 65 63 66 64 76 93 98 90 82 73 73 75 78 78 80 84 85 82 79 72 55 38 35 33 35 38 43 48 51 50 48 45 44 43 39 39 33 31 28 29 30
62 61 63 61 60 63 69 73 73 75 68 71 74 73 78 81 84 82 76 72 62 49 47 36 34 36 39 42 50 52 58 60 60 55 55 50 42 39 37 37 35 37 36
61 63 64 65 67 68 67 67 74 67 71 72 74 78 85 86 80 74 66 51 47 46 44 49 46 47 47 50 59 62 63 69 70 63 59 53 49 47 46 47 46 44 43
66 64 62 63 64 69 67 66 69 70 70 74 80 84 82 71 61 50 41 40 43 46 48 54 51 51 50 46 54 66 69 75 77 77 72 56 59 59 54 58 50 46 49
62 57 58 55 66 64 67 67 68 70 74 77 78 67 58 51 44 43 42 42 47 47 45 44 41 40 41 44 53 68 75 84 83 80 78 58 60 62 65 60 54 51 52
49 52 54 54 58 60 64 66 71 71 74 62 52 43 40 37 34 37 41 42 45 47 46 47 47 51 48 62 66 73 86 88 87 81 80 60 64 65 64 61 58 61 57
45 49 50 53 56 60 61 64 61 54 44 37 36 36 36 36 37 36 36 35 35 36 39 42 47 46 56 63 72 77 87 88 91 86 77 63 67 66 66 70 62 57 60
45 48 51 52 54 55 53 50 44 40 39 37 35 35 36 35 33 33 31 30 29 29 29 36 44 43 52 60 70 81 87 87 86 78 74 68 71 69 76 71 61 56 61
48 50 51 50 46 43 41 42 40 39 36 32 30 29 27 26 24 23 22 20 17 15 16 18 25 33 54 61 68 86 88 91 81 70 80 80 72 75 76 67 60 59 65
48 47 45 42 40 40 42 40 37 33 30 30 30 27 25 24 23 21 19 17 18 14 13 12 12 18 43 65 78 87 95 92 74 82 89 87 76 81 76 68 60 64 64

GFSMA_prec_cthk_063.txt.gz
RH
75 73 70 66 71 75 73 63 68 65 57 40 35 32 30 27 28 29 32 31 30 28 33 34 32 30 30 30 29 30 30 28 28 27 27 28 33 36 37 38 37 36 33
78 74 69 66 73 74 68 71 69 59 48 38 31 31 31 31 29 31 35 36 35 34 33 35 35 34 34 34 33 32 32 32 30 28 27 29 34 36 36 35 34 33 34
78 72 67 70 74 71 73 76 71 54 45 45 34 30 33 34 33 35 38 40 39 38 40 40 42 40 37 37 37 38 36 34 31 28 30 36 36 35 34 32 31 28 27
73 70 71 69 70 74 80 78 68 55 47 41 38 35 34 37 42 44 44 44 44 46 46 48 45 44 42 42 38 38 39 33 31 29 34 38 35 33 30 27 24 23 22
71 72 70 69 70 78 80 72 60 53 47 45 42 43 46 42 44 46 50 49 47 48 49 46 46 45 47 47 44 45 43 40 38 34 32 28 33 30 28 27 26 27 30
67 64 65 68 74 78 80 69 56 56 55 53 57 54 52 52 52 54 56 58 53 54 54 54 54 55 53 50 46 48 47 47 41 38 34 28 24 26 27 26 27 34 33
70 67 62 72 79 83 69 62 60 62 67 72 72 67 64 64 65 64 64 66 66 67 67 62 58 56 53 49 47 47 48 46 43 41 35 30 26 24 27 29 33 33 32
72 73 80 81 82 81 79 75 73 72 79 86 82 85 76 76 73 74 72 70 74 73 71 67 63 60 55 50 50 51 50 48 44 41 39 34 28 22 21 26 25 31 31
60 69 78 86 88 89 85 85 86 87 89 92 95 90 90 86 82 83 80 79 79 75 75 73 69 63 61 55 57 58 55 51 48 44 36 30 27 23 20 26 25 23 22
57 59 65 77 85 80 83 85 85 86 90 90 97 95 89 90 92 89 86 88 84 80 80 79 70 65 63 61 61 59 60 54 46 37 32 29 25 22 20 20 22 23 22
59 60 64 70 77 80 78 78 87 91 91 98 94 96 94 97 97 94 91 91 85 86 82 77 73 72 66 64 65 68 59 49 39 33 29 27 25 25 21 19 18 19 23
79 82 78 75 76 80 83 87 91 93 95 95 94 95 95 98 98 93 89 91 92 94 85 78 78 72 71 73 71 65 52 41 32 29 27 27 29 28 25 23 24 24 25
76 80 86 89 88 88 83 86 91 97 94 94 93 92 98 97 94 96 94 93 87 86 83 86 80 76 79 76 64 52 40 32 31 31 31 32 34 34 31 27 26 24 21
74 78 84 87 89 84 79 79 80 85 86 89 91 93 97 97 95 91 79 75 69 72 77 81 85 83 73 63 47 38 33 34 35 37 38 37 37 38 35 29 28 28 22
86 81 78 78 74 73 72 67 66 63 75 87 90 93 92 81 72 73 74 75 78 77 73 73 68 63 52 43 39 35 36 37 37 39 40 41 41 41 38 33 31 30 25
87 82 78 64 65 63 64 60 58 69 75 78 77 91 82 67 73 74 75 80 82 79 67 62 53 43 38 36 36 38 39 39 40 43 45 45 45 46 44 39 33 30 29
73 78 66 64 62 62 62 60 59 64 63 60 66 69 67 72 70 74 76 79 82 74 62 49 44 42 41 40 41 43 45 47 46 45 49 54 50 52 56 56 42 39 39
72 68 65 65 64 62 57 59 54 62 58 66 72 67 70 70 75 77 79 76 66 60 54 43 43 42 44 45 50 55 60 64 60 66 71 77 64 67 65 61 49 44 47
57 61 66 66 61 57 60 55 68 71 66 65 68 70 71 74 75 72 64 56 50 49 52 53 48 48 46 48 51 56 50 62 66 57 66 80 74 80 73 67 59 49 52
63 64 62 58 55 57 58 56 70 63 64 65 67 70 72 73 59 49 45 46 45 46 49 52 50 48 49 48 55 55 53 52 55 66 76 78 84 84 81 74 64 53 53
65 62 58 52 49 53 55 62 60 62 66 68 68 68 61 49 40 41 45 46 46 46 44 43 43 46 45 44 43 45 51 60 73 86 85 89 90 88 79 73 66 55 57
61 54 47 46 51 54 56 56 59 61 61 66 62 49 38 37 37 33 34 36 38 40 41 43 42 46 42 47 47 46 53 63 73 78 87 93 88 85 78 74 63 62 61
51 46 42 45 47 49 52 54 58 57 55 47 36 33 35 35 32 33 32 32 33 33 35 36 34 34 35 37 43 41 42 54 66 77 83 86 90 83 79 66 64 67 66
45 40 42 43 46 48 51 52 50 43 36 35 37 38 35 32 30 28 27 27 25 24 21 19 16 15 15 16 20 38 40 45 67 75 88 83 88 78 73 67 69 73 65
39 40 42 44 47 49 47 42 39 39 39 40 36 33 33 32 31 30 28 26 24 22 22 22 21 18 15 12 12 17 32 46 73 83 93 91 80 74 72 71 72 72 68
42 44 45 45 43 40 41 41 42 42 36 35 33 35 35 33 32 30 29 28 27 26 27 23 23 22 18 13 20 22 26 55 77 85 98 94 89 79 71 73 72 74 67

GFSMA_prec_cthk_069.txt.gz
RH
76 74 71 69 68 71 70 69 64 57 55 49 48 46 40 32 30 28 29 31 32 32 31 31 30 29 30 30 29 33 32 29 28 27 24 22 24 23 22 23 26 25 23
79 76 72 70 72 74 69 70 69 63 56 51 47 43 39 33 29 29 31 33 34 35 37 38 36 36 34 34 37 37 37 34 32 31 29 27 26 28 24 22 22 23 25
80 76 74 75 72 74 72 68 65 65 59 49 43 37 34 32 30 31 34 37 37 38 40 43 43 41 41 42 42 43 45 39 36 34 31 29 28 28 24 23 22 24 26
81 76 74 75 72 73 71 68 69 69 64 52 44 39 32 30 31 33 37 40 42 44 45 46 48 51 52 49 48 50 48 43 40 40 37 32 29 28 25 23 22 23 28
82 79 77 76 69 71 73 70 73 74 70 54 44 41 40 38 40 43 43 47 49 50 53 57 60 60 59 59 58 57 53 46 43 42 40 32 30 29 27 24 23 23 27
84 82 81 76 70 68 70 72 80 79 71 55 51 50 49 53 56 59 59 59 63 62 63 64 67 66 65 63 60 59 53 49 49 45 38 35 32 31 30 29 26 22 20
85 83 79 73 73 69 69 74 85 84 72 58 61 67 69 68 66 71 74 73 76 77 73 72 74 75 70 64 61 61 60 56 50 46 45 42 40 37 33 29 25 20 17
80 78 77 76 70 66 71 80 83 78 73 70 73 74 71 72 73 77 79 78 76 79 82 81 78 81 74 69 65 63 55 52 51 55 53 50 48 45 36 28 22 19 18
77 77 76 72 69 65 70 77 84 83 81 81 79 76 76 76 80 80 83 82 81 81 81 85 82 79 74 61 58 54 55 56 57 60 59 56 54 44 32 27 24 23 22
78 80 78 78 79 73 78 85 87 86 83 84 82 85 83 82 84 79 82 83 78 78 80 83 78 70 65 62 57 52 56 59 62 62 60 54 44 38 33 31 28 27 26
69 68 68 67 69 74 79 82 83 83 87 88 88 88 86 89 81 86 86 81 78 78 82 75 73 70 64 58 58 59 62 67 65 61 57 50 44 42 39 36 32 31 30
62 60 57 58 59 66 69 71 77 81 81 79 79 79 79 86 79 73 77 78 75 76 77 74 71 64 64 61 62 66 67 67 62 59 52 49 49 49 45 41 37 35 34
64 65 60 59 63 66 69 76 85 84 79 76 71 68 67 69 60 71 77 73 69 69 67 65 61 65 66 67 68 67 65 61 55 51 50 51 52 52 49 45 44 40 41
64 65 68 81 83 84 89 93 92 88 74 72 70 64 68 57 66 80 77 69 60 59 62 56 62 63 66 66 65 63 58 51 45 44 49 51 51 51 49 49 49 50 49
82 87 84 81 83 88 94 93 91 77 71 67 66 63 61 54 65 71 65 56 56 58 59 59 63 63 62 60 58 53 47 42 43 44 46 48 48 47 48 50 54 57 65
92 96 96 94 89 92 94 88 82 72 65 64 60 54 56 54 57 55 53 57 57 58 58 64 62 60 59 53 42 39 36 36 39 43 45 47 48 49 51 54 54 70 78
93 97 95 91 91 86 91 82 76 70 66 61 55 51 61 57 58 60 56 59 68 64 64 61 60 56 47 35 34 33 34 36 39 43 46 49 50 50 49 57 68 70 66
87 77 81 81 85 85 81 79 72 70 67 65 55 58 55 62 65 63 61 63 66 67 63 60 57 40 36 35 35 35 36 39 40 41 42 44 42 45 47 56 60 66 70
88 76 71 81 86 85 77 74 75 68 68 59 58 60 59 63 69 67 60 68 64 66 64 50 37 36 37 36 34 34 35 35 37 37 38 38 39 39 37 44 57 48 75
87 78 74 76 73 72 74 74 73 69 63 57 56 58 57 64 65 68 63 71 65 59 42 37 37 38 37 35 35 33 30 28 26 24 23 25 29 29 24 41 56 47 79
75 72 75 76 72 69 69 75 72 66 56 58 66 57 55 65 72 65 67 63 56 39 36 37 37 37 36 34 30 28 27 27 26 25 22 21 18 19 26 30 34 56 68
67 73 77 74 71 69 73 73 71 59 54 60 58 60 64 67 65 68 61 53 39 38 37 36 37 37 34 32 32 33 33 32 29 28 27 16 11 15 29 52 49 54 74
65 74 75 72 70 75 73 70 66 58 55 59 65 64 66 64 62 56 45 42 42 40 37 38 41 39 35 35 33 34 38 37 37 31 29 20 17 11 15 44 45 64 88
70 78 81 81 81 74 66 66 64 59 59 63 64 64 64 58 45 43 45 43 41 40 43 44 42 41 40 38 37 40 40 37 32 31 32 26 21 23 28 33 66 89 80
79 82 84 82 72 67 64 66 63 60 62 63 62 57 46 41 44 46 47 46 45 46 48 47 45 43 42 41 41 40 37 42 34 28 29 36 24 31 46 60 83 88 87
85 87 80 70 66 64 67 66 60 60 60 56 45 40 41 44 47 49 51 50 49 49 49 47 46 45 45 44 44 44 40 40 45 37 30 39 32 45 60 68 96 97 96

GFSMA_prec_cthk_072.txt.gz
RH
68 67 63 60 66 64 63 62 69 65 61 57 52 52 49 42 36 34 33 33 31 29 31 31 29 28 27 28 29 29 31 30 31 30 28 25 24 25 23 19 17 16 16
76 76 75 75 72 70 69 71 69 65 61 55 53 50 47 40 33 30 30 31 32 32 34 35 35 35 33 32 32 33 35 36 36 35 32 29 29 27 24 20 19 18 17
86 82 83 84 81 80 78 76 71 65 61 55 51 47 42 38 33 30 31 33 35 35 37 41 41 42 42 40 40 40 42 43 42 39 36 33 30 28 24 23 22 20 19
84 90 89 86 85 84 80 76 73 68 63 62 50 43 40 36 33 32 33 36 39 41 43 45 48 52 52 52 52 54 52 48 44 43 40 34 28 26 25 23 23 22 22
90 90 88 86 83 82 83 77 75 70 69 70 57 49 42 37 37 39 38 38 44 49 51 53 56 60 63 63 61 59 56 50 48 47 43 36 31 29 28 26 25 23 22
91 90 87 86 82 81 82 79 77 78 77 75 61 52 48 48 48 48 51 60 63 61 66 68 67 66 69 71 69 68 65 58 55 46 41 39 38 37 36 33 27 24 22
91 88 86 87 85 78 80 79 78 84 86 83 70 61 59 64 68 69 68 69 72 76 81 82 79 79 77 79 78 73 70 62 52 48 45 44 44 44 41 38 35 30 24
92 90 88 86 84 78 76 77 79 84 86 88 70 65 68 71 67 72 74 77 81 81 85 86 85 84 81 82 80 75 63 59 51 50 51 52 51 48 45 42 37 29 23
92 92 89 86 81 78 74 73 77 84 83 83 74 73 74 78 75 76 81 85 82 82 84 81 82 83 83 83 74 71 68 62 52 54 57 56 55 49 46 41 35 31 29
89 88 89 85 75 73 76 73 72 79 83 85 83 81 81 82 82 80 88 79 83 89 82 80 75 79 76 74 73 72 62 61 54 59 60 60 58 51 47 41 36 34 33
80 81 77 79 74 74 78 78 80 87 91 90 86 89 92 91 88 86 86 87 75 81 78 72 68 74 70 68 65 62 64 63 59 63 61 63 60 57 54 50 45 43 39
74 75 75 77 78 80 80 81 85 86 85 81 86 87 83 82 77 80 73 83 64 68 73 71 70 67 64 62 60 63 62 63 65 66 63 59 56 52 52 61 64 66 61
59 60 65 67 71 72 70 70 70 72 79 85 90 88 86 83 76 69 69 60 70 75 78 75 66 61 63 64 66 63 64 63 63 61 58 54 49 48 51 57 58 63 66
63 65 65 64 65 61 61 66 75 81 89 92 96 91 79 76 72 71 78 57 68 77 73 63 56 62 64 68 66 61 59 59 58 54 48 42 41 45 50 52 52 53 53
72 68 67 71 70 73 73 82 85 95 92 92 87 77 75 82 71 65 57 55 58 63 52 55 57 64 62 67 64 59 57 51 44 41 39 41 45 46 48 48 47 48 54
71 71 72 70 72 75 81 85 90 97 89 88 80 76 70 66 64 57 57 55 55 56 54 54 63 67 68 63 60 52 39 36 34 36 39 41 43 45 46 48 50 50 48
71 75 84 93 96 96 90 89 90 96 93 91 86 74 67 60 58 53 67 59 58 59 59 62 58 64 65 61 48 35 36 35 37 37 36 36 38 40 42 43 42 45 45
75 75 84 91 83 80 95 90 89 93 89 86 87 72 67 58 63 56 65 62 69 64 62 59 64 62 62 49 35 35 35 36 38 36 34 33 34 34 35 36 38 39 38
82 84 86 83 72 79 86 85 87 92 86 88 85 77 66 69 55 57 64 60 71 67 68 64 66 64 50 38 37 35 35 38 37 35 35 34 34 32 29 26 23 23 29
85 88 85 80 83 80 80 79 80 83 80 78 82 76 72 64 57 63 61 59 71 70 71 62 63 53 39 38 36 36 40 41 38 39 38 38 36 33 29 24 19 16 24
78 72 77 83 87 80 79 79 76 71 73 77 84 77 68 56 62 68 61 63 71 73 63 63 56 43 41 39 40 42 41 38 38 40 39 38 35 33 29 24 17 20 26
73 72 73 79 81 82 83 81 73 75 75 75 77 74 69 56 65 63 63 69 70 65 56 53 46 46 46 45 46 44 41 40 39 43 38 37 36 32 28 22 18 15 37
69 76 80 78 77 81 80 82 85 87 82 77 73 69 69 62 59 68 70 71 61 54 49 45 48 49 49 50 48 48 46 45 46 45 42 38 37 33 29 20 23 17 34
66 73 77 73 76 79 81 89 94 90 77 71 69 68 62 62 68 71 68 60 53 45 44 48 50 51 53 54 51 49 50 49 49 49 49 42 34 32 29 21 27 34 39
70 68 68 73 77 84 86 98 87 76 68 69 68 68 64 65 68 65 57 47 43 46 48 50 54 56 58 57 53 53 55 56 50 51 49 44 34 36 32 19 29 45 53
60 60 65 71 81 87 97 86 72 71 70 72 72 70 68 64 60 54 46 47 49 49 50 57 56 60 60 55 56 60 59 60 58 51 48 45 43 44 36 25 38 57 64

GFSMA_prec_cthk_075.txt.gz
RH
65 69 67 66 61 59 59 65 65 65 62 64 58 56 54 50 47 41 37 34 32 35 35 32 29 27 27 27 27 27 28 30 31 31 31 31 28 27 25 19 17 17 18
76 69 67 65 63 67 66 70 68 68 66 63 61 57 54 51 48 41 37 36 37 37 36 34 33 34 35 35 33 33 34 36 39 37 35 36 34 31 24 21 20 19 18
78 77 72 71 73 72 72 75 72 68 65 62 58 55 54 52 47 39 36 34 33 35 35 36 38 40 41 41 41 42 43 46 46 44 41 36 35 32 26 23 21 20 19
79 74 79 84 83 81 79 81 74 73 66 61 57 52 49 48 43 39 36 35 36 37 39 42 43 47 50 53 57 56 56 55 54 52 50 44 42 35 30 27 25 25 22
80 82 86 84 84 85 88 86 82 78 71 66 65 55 47 45 43 43 41 39 41 44 46 49 54 59 60 62 63 66 66 64 64 61 60 49 41 36 35 34 34 31 27
90 90 86 88 91 92 93 87 85 84 79 76 75 69 59 55 53 51 51 51 54 62 68 70 69 74 75 75 73 71 73 70 70 69 60 49 43 41 41 41 40 37 34
93 91 90 94 92 89 92 89 87 86 86 86 86 75 64 60 63 65 63 63 66 73 74 75 81 83 82 80 80 80 76 75 76 62 56 51 44 46 47 45 44 42 39
92 92 92 91 88 87 88 89 89 88 88 89 90 84 75 72 75 71 72 71 73 80 76 79 84 84 83 83 80 83 81 73 71 67 61 53 50 50 52 51 48 45 42
93 94 90 89 88 86 85 83 82 82 86 91 93 92 82 73 74 82 81 80 85 85 84 82 84 84 81 81 80 78 75 71 69 63 62 59 57 58 55 54 51 48 43
93 93 91 89 88 86 85 83 79 77 82 86 88 90 88 79 80 82 82 82 90 91 88 84 90 91 77 68 73 73 67 65 57 57 60 56 59 63 61 57 53 50 46
94 92 91 91 91 90 86 79 77 78 81 85 92 94 88 81 80 83 85 88 84 82 80 95 79 78 77 68 70 65 62 60 57 58 56 57 61 59 62 60 59 58 56
82 84 85 84 87 86 83 82 80 84 83 84 92 92 86 84 84 86 86 81 85 79 65 64 67 74 75 77 68 62 62 62 63 58 57 58 59 58 55 53 53 56 60
75 76 78 79 78 77 77 77 79 76 79 82 87 81 84 88 94 95 89 93 79 74 76 63 70 80 78 62 58 60 61 63 63 59 55 53 51 49 48 47 46 50 56
65 71 73 72 75 76 74 75 76 71 69 69 74 78 84 93 98 90 89 81 89 68 64 60 57 67 57 56 59 63 61 64 60 57 50 40 38 38 40 41 42 43 45
62 63 62 62 63 64 66 69 68 66 69 72 77 81 88 94 93 86 83 86 79 65 57 61 55 58 55 55 61 62 64 63 58 45 33 31 32 35 38 40 41 42 44
65 64 66 66 68 69 71 72 73 71 75 79 84 92 92 87 89 80 79 79 67 59 64 62 62 64 62 64 61 60 61 62 45 36 35 34 34 37 40 38 38 40 43
63 64 71 71 72 75 76 76 79 82 89 96 95 90 91 90 89 83 81 73 67 63 61 65 62 70 67 66 64 63 58 43 37 37 37 37 39 40 37 36 36 36 37
64 60 64 67 69 73 81 89 92 93 95 98 96 92 93 96 93 88 81 73 68 58 59 62 63 70 73 65 64 59 48 41 39 40 41 43 42 41 40 40 38 39 36
65 68 70 77 83 82 89 93 86 92 99 98 93 95 94 96 97 85 75 74 69 55 61 62 62 71 70 64 55 47 41 41 45 45 45 45 44 44 44 42 41 39 34
63 68 71 79 86 89 88 81 85 79 88 90 88 91 84 86 80 92 81 68 67 57 68 62 60 66 68 55 45 40 41 44 48 48 48 47 48 50 49 46 43 36 32
61 70 73 77 84 91 90 87 93 89 86 85 79 73 74 72 75 90 77 70 65 61 71 65 63 63 54 44 38 38 42 47 50 51 50 54 56 54 50 45 39 33 27
62 64 67 71 78 84 80 81 88 87 85 83 77 76 75 82 88 81 78 68 69 63 63 68 64 54 45 40 42 46 44 47 51 57 56 57 58 52 48 42 36 32 28
68 63 68 71 73 77 81 83 88 88 85 82 83 86 87 84 83 71 75 70 70 63 68 64 55 48 45 45 44 45 48 55 58 57 57 55 56 50 50 43 34 33 28
65 64 66 69 70 76 80 81 82 83 84 84 87 93 94 87 74 76 73 72 70 68 63 57 48 45 45 46 46 50 57 64 60 61 64 59 55 55 53 46 36 33 30
63 65 65 70 70 71 70 69 73 75 83 88 98 98 91 75 73 78 75 80 73 68 62 58 56 50 47 46 50 59 68 61 60 66 68 64 60 57 53 47 39 34 30
56 59 60 61 65 66 64 67 70 76 84 96 97 96 75 71 77 79 81 80 76 71 63 58 52 53 54 55 63 72 65 65 70 68 77 63 62 62 53 48 42 40 34

GFSMA_prec_cthk_078.txt.gz
RH
76 70 67 66 65 61 59 60 59 60 59 61 62 63 60 57 58 60 48 41 36 38 36 33 34 31 29 28 28 28 28 28 29 32 34 32 30 28 29 26 21 19 18
82 79 74 67 64 65 64 63 65 66 64 64 65 62 60 61 60 58 52 47 43 41 43 45 40 37 36 36 35 35 34 34 35 38 41 38 40 39 32 28 25 23 20
89 81 76 71 70 70 68 68 68 68 68 69 67 62 63 62 59 56 52 48 43 43 44 39 37 39 40 41 43 43 42 42 45 47 49 48 48 47 39 36 30 24 22
80 78 77 75 77 75 72 71 75 73 73 67 65 62 61 60 59 55 53 46 43 43 39 42 44 44 44 46 48 53 58 59 57 58 58 58 57 57 48 37 31 30 30
81 78 75 76 82 82 80 77 74 73 72 67 64 62 57 54 53 52 48 43 45 50 53 56 53 51 55 59 62 64 66 67 65 65 64 63 63 60 45 36 35 37 36
91 89 86 84 82 79 80 83 81 78 74 71 67 68 61 54 53 56 57 55 57 56 64 62 64 69 70 71 73 77 79 77 76 73 72 70 67 55 44 39 39 40 39
88 82 82 85 84 83 86 87 86 84 82 77 77 76 71 65 63 65 65 65 65 66 65 67 74 76 77 78 81 79 82 79 82 79 77 70 65 59 47 46 44 43 42
82 85 89 88 90 84 84 89 89 87 90 87 87 90 86 78 72 70 71 73 74 72 73 74 73 75 77 83 80 77 76 77 74 73 71 64 61 52 48 47 48 48 47
91 91 92 90 88 84 89 89 89 88 89 92 92 93 92 87 82 86 79 81 85 80 80 80 78 79 80 80 84 85 75 65 64 62 58 54 53 54 53 51 50 49 49
92 93 94 92 87 89 86 87 88 87 87 87 89 91 92 92 92 92 80 78 84 81 82 83 82 81 81 83 81 74 72 61 57 55 53 50 52 52 52 54 58 55 54
93 94 90 91 88 87 86 86 86 83 81 80 79 83 86 91 96 91 80 81 79 79 83 86 85 74 65 71 66 66 69 71 58 55 55 54 56 52 52 52 53 55 53
90 92 92 91 90 90 88 85 85 80 80 80 86 86 81 87 94 92 84 83 88 92 92 93 88 72 65 65 64 71 76 68 57 56 56 56 57 54 50 49 47 43 42
79 82 85 84 83 85 85 85 89 88 78 78 79 80 81 87 93 88 91 88 92 97 89 88 91 68 58 52 58 70 63 52 54 60 59 59 56 52 46 40 39 38 39
67 72 74 75 78 83 86 87 91 93 85 76 76 74 73 79 85 80 83 93 99 89 86 89 87 69 51 54 48 48 51 52 55 55 57 57 53 37 30 32 33 36 37
59 63 67 68 73 74 79 82 84 79 76 77 77 74 71 75 84 86 90 91 98 94 88 84 83 59 60 56 53 55 57 57 58 55 54 55 37 28 30 33 36 37 39
59 60 63 65 67 71 76 77 76 76 76 78 73 71 73 77 82 90 95 97 96 89 89 85 75 72 60 58 55 60 62 59 58 57 56 38 31 31 33 37 40 40 39
67 67 68 71 74 77 76 74 74 77 78 76 76 79 79 83 91 94 94 95 96 93 88 89 83 68 60 61 58 63 68 67 63 54 40 33 31 35 39 41 42 42 43
67 70 73 74 73 78 81 79 79 80 86 84 87 87 87 95 95 98 97 97 92 94 89 78 74 71 61 63 63 63 65 66 58 45 37 33 36 43 45 46 47 50 50
67 70 68 71 72 69 74 80 78 73 75 77 85 83 94 99 96 95 96 97 97 90 88 84 77 72 62 70 71 66 64 56 51 41 36 38 43 45 48 51 55 55 51
62 63 60 63 71 69 72 72 77 82 84 84 79 78 86 94 94 97 94 89 90 82 94 87 76 71 67 66 68 65 59 52 47 38 37 43 44 48 55 61 59 55 52
62 60 59 63 66 66 63 70 78 90 90 85 87 86 84 83 83 81 83 89 81 90 99 91 76 71 68 65 64 57 53 46 40 36 40 45 49 57 64 63 62 59 52
59 63 60 63 64 63 63 71 76 84 85 86 86 84 86 88 84 82 89 90 88 86 81 75 72 70 70 65 60 52 53 48 49 48 49 53 60 68 69 67 64 58 49
60 62 63 67 69 66 69 73 77 78 77 77 81 86 90 88 88 86 87 94 91 91 85 74 76 75 69 64 59 60 59 57 54 55 60 66 75 72 70 72 67 59 49
50 58 69 73 72 68 69 76 79 79 80 80 83 86 87 85 85 88 95 98 97 96 81 78 75 73 71 67 65 60 58 54 58 62 75 73 74 71 72 74 68 61 54
45 50 56 69 73 71 71 72 76 78 78 79 80 82 83 86 88 93 95 98 96 91 82 76 76 73 70 67 63 62 58 63 73 78 77 77 78 76 72 71 70 66 57
56 53 53 58 64 66 67 67 70 72 76 77 78 79 80 85 94 99 98 99 93 79 74 77 72 68 66 68 64 61 62 70 80 81 82 79 82 82 71 71 71 64 64

GFSMA_prec_cthk_081.txt.gz
RH
95 92 91 89 74 65 57 50 57 58 60 57 59 63 65 71 70 57 51 47 41 37 33 27 29 30 29 35 30 28 29 28 28 28 28 31 31 30 31 34 31 27 22
97 94 90 90 74 67 63 59 64 61 63 65 65 69 67 68 70 61 54 46 45 42 38 36 38 40 40 36 36 35 33 32 32 32 33 36 41 42 42 43 39 34 28
97 94 93 85 77 72 69 68 67 62 67 67 66 70 71 70 67 64 56 52 47 47 46 43 44 44 44 37 41 39 40 42 42 43 45 48 50 49 51 51 50 45 31
94 88 93 92 86 81 76 72 71 69 70 71 73 74 72 71 66 65 61 56 50 49 44 45 45 40 46 46 44 44 47 51 55 58 58 57 57 58 57 56 58 43 31
90 87 92 87 78 75 73 77 77 79 78 74 77 72 70 68 63 64 62 59 57 53 51 48 49 54 53 51 51 56 63 64 67 69 68 65 63 62 61 60 52 41 32
94 92 91 89 81 78 80 82 83 83 82 80 76 70 67 64 63 62 61 58 60 56 58 59 58 62 63 64 64 68 68 70 71 70 69 70 68 66 62 57 51 45 39
92 94 93 91 84 86 86 83 82 83 83 78 75 70 68 64 61 63 65 64 64 64 66 68 69 69 63 64 66 66 68 72 73 73 72 67 65 65 60 55 49 41 42
93 92 90 86 85 88 87 86 87 86 86 81 78 75 76 77 70 68 68 71 73 73 70 72 73 71 66 64 64 67 72 78 76 73 66 60 61 57 50 43 44 45 46
89 88 86 83 84 89 89 89 90 90 92 85 82 83 90 90 88 81 78 72 73 71 76 79 74 71 69 70 65 72 74 74 71 70 64 57 52 50 48 50 50 48 48
92 92 89 88 88 90 92 89 90 90 90 86 87 89 91 94 89 90 87 82 82 78 84 81 76 70 69 69 68 66 61 64 63 61 66 61 51 49 49 50 52 50 49
90 88 81 85 90 91 90 89 87 87 86 88 88 86 89 89 86 87 89 91 88 81 77 74 73 73 75 83 80 65 61 62 62 64 71 64 53 53 48 50 51 49 47
84 85 84 91 92 92 90 88 88 88 86 84 84 85 85 84 82 84 86 88 92 95 91 85 84 87 80 78 78 68 57 56 58 66 66 53 51 53 52 50 49 47 45
83 88 92 93 93 93 93 90 87 90 85 83 87 88 91 93 89 78 83 89 89 87 86 88 87 96 86 83 79 65 58 59 53 52 45 49 51 49 50 49 47 41 31
72 79 83 83 83 85 85 85 86 87 84 85 84 86 89 91 85 80 79 83 89 85 84 83 87 91 88 82 78 64 60 58 51 51 50 52 49 48 48 47 36 29 29
61 68 71 73 77 80 82 82 85 87 84 87 92 92 89 83 83 84 84 77 77 82 83 82 89 95 90 82 71 72 63 53 52 53 54 55 53 52 50 36 29 28 29
58 61 63 63 64 69 71 74 78 81 83 86 90 90 85 83 82 79 79 79 81 83 88 88 93 94 87 83 82 69 59 56 56 54 58 57 57 54 41 30 27 30 33
67 68 65 61 61 64 67 71 72 75 76 78 80 81 80 82 84 88 85 85 85 88 95 94 96 93 89 86 64 62 65 60 58 58 59 57 52 45 36 29 29 30 37
63 65 66 63 64 68 70 71 74 77 78 78 81 85 84 84 84 82 86 89 93 94 97 98 98 91 88 81 75 70 70 63 61 63 63 58 45 41 36 31 29 35 39
62 63 66 66 68 66 70 71 72 77 76 75 77 77 79 79 73 78 85 93 96 97 96 99 96 93 88 85 88 85 81 66 65 67 60 56 43 39 35 34 34 40 48
55 55 57 64 63 64 64 69 74 70 71 78 79 81 79 82 85 81 82 87 88 91 98 98 96 86 89 98 95 84 72 68 67 62 58 54 46 43 41 42 45 49 60
51 53 55 59 63 61 63 69 71 72 71 71 77 83 83 89 96 89 88 83 82 88 87 92 93 90 93 95 91 87 74 75 64 71 64 56 57 55 52 51 55 63 66
53 56 53 55 59 58 57 63 68 71 69 69 73 76 85 93 94 92 90 88 95 90 91 87 96 93 90 96 94 88 80 77 71 74 72 68 64 60 58 60 72 71 70
57 55 57 59 58 61 59 61 70 72 74 76 77 74 82 82 84 86 87 90 96 92 88 88 86 98 99 97 95 93 86 74 75 77 70 67 64 60 68 77 77 76 75
56 59 54 56 59 60 63 70 74 75 75 74 76 78 82 80 79 83 88 93 90 87 87 84 99 98 98 99 94 86 76 76 75 70 72 65 65 72 78 79 82 80 76
47 45 47 48 51 55 60 66 79 82 80 80 79 80 81 83 82 82 85 86 89 85 82 87 98 98 98 94 87 74 70 66 77 71 69 71 78 78 83 82 79 82 82
55 58 60 59 61 62 62 63 68 74 77 78 79 77 78 78 78 80 82 83 83 86 90 99 92 97 92 83 72 67 78 76 74 75 76 83 84 88 78 82 84 86 82

GFSMA_prec_cthk_087.txt.gz
RH
85 88 89 87 87 72 56 46 41 39 45 54 58 52 53 52 54 48 42 44 45 43 42 35 32 30 30 28 25 23 24 26 29 23 21 22 23 22 23 28 34 36 36
77 77 82 88 88 82 64 50 43 43 53 55 61 55 55 55 57 52 45 47 45 43 42 39 38 34 33 30 27 28 29 31 28 29 30 29 30 33 37 39 41 42 42
77 77 75 87 87 83 62 56 51 51 61 63 62 56 57 63 60 54 46 47 49 45 44 39 37 35 35 33 31 34 37 36 36 41 39 43 44 46 46 46 46 48 48
70 72 70 87 90 81 67 67 64 60 62 59 67 63 63 65 62 56 50 52 51 49 47 43 41 39 39 40 41 42 45 42 47 47 53 53 52 52 53 56 55 54 55
70 74 83 85 86 83 81 77 73 68 67 62 68 69 66 65 66 62 59 57 55 53 50 47 46 44 43 46 46 52 53 57 57 58 56 51 51 56 61 60 59 56 53
66 80 89 92 89 83 85 82 80 75 68 67 70 74 73 70 71 69 68 64 59 55 51 48 46 47 50 53 57 60 62 60 57 57 55 55 59 60 62 59 57 52 48
80 89 96 97 92 89 87 84 79 75 74 80 79 79 78 76 79 76 72 69 63 59 59 58 59 58 58 59 63 61 67 63 57 56 56 55 59 62 62 62 58 51 42
92 98 96 94 94 94 89 87 82 81 81 82 79 80 85 84 83 81 79 69 63 64 65 65 65 64 67 66 68 70 70 63 58 58 57 59 63 61 62 61 61 56 51
93 97 97 97 98 96 93 86 82 78 81 80 83 82 82 80 80 80 74 70 71 70 69 66 68 67 70 76 79 75 69 61 59 60 67 72 66 58 63 62 68 70 59
94 95 95 95 94 96 97 91 83 78 80 82 83 84 84 74 75 76 76 79 80 73 69 72 70 72 73 74 73 74 70 68 65 65 72 73 69 61 62 62 62 61 55
95 97 96 96 94 93 92 88 81 81 82 82 83 84 82 79 83 82 80 82 82 79 80 76 79 80 75 72 74 71 71 72 79 82 78 73 69 61 63 63 58 50 50
94 92 89 88 88 87 88 84 81 82 83 84 86 86 84 85 89 87 90 86 87 83 84 88 84 88 88 86 84 79 78 78 82 85 82 79 74 70 75 64 55 54 50
91 88 86 85 82 81 79 79 79 80 83 87 91 91 89 90 92 92 91 91 83 82 80 82 86 86 85 85 81 80 82 81 81 81 83 79 75 71 77 65 56 56 54
81 83 83 82 82 82 80 78 78 84 87 93 96 96 93 93 93 90 89 89 90 92 90 82 83 83 82 79 77 77 81 82 83 86 89 83 80 78 66 55 57 60 57
66 66 68 75 74 74 76 77 84 85 88 92 90 92 93 91 90 91 92 91 90 92 92 85 86 88 87 84 82 80 78 81 87 92 94 83 80 64 61 57 62 63 58
57 56 56 59 62 66 68 72 76 81 82 86 88 90 91 90 89 89 92 91 94 95 91 89 87 87 87 89 88 86 86 89 96 98 95 87 76 72 71 70 72 64 58
58 60 61 63 61 58 61 65 65 69 71 78 83 88 88 89 90 91 90 89 91 95 95 88 89 84 77 83 86 87 89 93 98 98 92 88 87 81 81 81 78 69 73
53 56 62 61 63 64 65 64 61 63 72 72 76 81 78 82 83 85 85 83 87 89 92 92 90 88 83 84 87 89 86 92 96 96 94 93 89 87 86 92 85 78 80
52 52 57 62 59 58 60 62 66 69 71 72 73 75 73 77 78 78 80 82 84 88 88 90 89 90 86 85 89 89 89 92 96 97 96 94 92 92 95 93 92 90 80
53 52 52 54 55 55 53 54 58 63 66 69 69 71 74 76 80 83 84 83 84 86 88 92 95 94 91 92 95 93 90 93 89 90 90 88 85 87 91 98 97 90 81
56 57 57 56 56 54 52 54 58 59 63 68 68 68 69 73 81 82 80 80 82 83 88 88 93 95 94 95 92 91 87 96 97 97 91 91 96 98 97 98 94 91 85
57 56 56 58 57 58 57 58 61 63 64 64 67 69 67 69 70 74 80 81 83 85 93 91 86 92 83 89 94 86 84 86 97 88 88 93 81 82 88 97 94 90 79
61 56 57 65 66 64 62 64 66 69 68 69 67 68 70 69 73 79 85 89 89 90 90 93 88 84 95 83 90 82 82 96 93 92 99 96 79 83 96 98 92 83 82
65 64 61 61 65 67 67 69 72 72 70 67 66 64 66 69 74 80 89 93 93 91 92 91 87 86 80 87 83 97 95 82 82 88 98 93 90 96 98 92 89 86 81
68 68 67 67 65 65 70 71 76 72 68 64 63 63 66 67 69 74 79 84 86 84 83 82 83 78 93 78 77 94 89 81 97 97 97 98 96 93 93 95 92 87 83
73 77 75 79 78 74 72 72 79 79 75 73 74 75 77 79 79 83 86 85 84 86 87 86 80 84 83 86 92 96 88 82 96 97 97 96 97 97 94 93 88 85 86

GFSMA_prec_cthk_090.txt.gz
RH
91 88 90 87 84 71 59 49 40 46 53 54 49 48 54 53 47 41 38 41 41 40 37 37 35 32 29 28 27 26 25 25 23 24 26 24 21 21 23 25 28 31 35
88 87 84 86 89 80 69 60 51 57 52 51 51 52 56 58 51 44 37 38 40 42 40 38 39 35 33 31 31 29 27 25 27 30 30 27 28 29 33 37 40 41 42
85 85 83 77 77 79 68 64 54 46 52 51 57 58 59 62 54 47 41 42 43 45 45 43 41 38 37 35 35 31 29 31 33 37 33 38 42 46 47 45 44 47 49
77 76 75 81 73 84 75 61 51 49 57 56 58 58 63 64 58 54 46 46 45 46 46 46 44 42 40 38 38 35 34 37 41 45 45 54 53 53 49 51 55 56 54
71 67 86 72 78 70 72 64 57 62 61 60 63 63 72 64 67 62 51 49 50 52 51 51 48 44 42 41 41 40 41 48 55 57 58 56 56 55 53 53 58 58 56
76 73 72 73 82 81 69 63 62 66 64 67 69 75 75 70 69 66 59 55 58 58 56 55 51 49 46 48 49 51 53 58 64 61 62 60 60 54 54 57 58 58 55
75 88 67 93 91 84 79 72 63 67 68 71 77 80 74 77 74 71 69 65 69 66 62 56 54 52 53 53 53 56 56 64 63 65 65 57 56 54 54 57 60 59 59
71 72 73 79 95 88 85 81 75 78 77 75 79 77 80 84 82 76 75 77 76 73 69 63 61 62 63 61 62 66 67 66 68 73 69 59 56 58 61 60 61 61 58
78 85 87 93 95 91 90 91 87 86 82 82 80 71 80 83 84 83 81 81 75 73 68 70 70 71 69 67 65 67 66 72 74 72 68 65 66 69 71 68 63 62 61
94 95 98 99 95 93 94 93 91 88 81 78 80 81 80 80 84 84 87 82 79 70 71 75 75 73 71 69 69 75 80 81 78 74 75 71 73 77 80 73 67 60 62
92 94 95 99 96 96 96 95 91 87 80 82 82 81 82 83 84 84 81 80 78 74 79 78 68 67 68 70 73 70 73 78 77 75 77 80 86 83 80 79 74 71 73
94 95 95 96 96 97 96 95 94 90 86 80 80 82 82 87 86 85 81 79 79 82 80 78 79 82 78 82 85 86 86 86 85 86 84 84 86 84 80 79 76 77 75
94 95 96 97 97 98 97 96 94 92 85 84 85 85 88 87 87 86 86 90 86 87 90 87 84 86 85 86 88 87 85 84 84 82 84 82 84 85 86 86 81 81 72
88 92 92 92 92 93 94 93 90 87 84 84 84 83 86 85 88 88 91 93 92 92 91 84 85 83 81 82 82 82 81 80 81 82 84 84 87 91 90 90 83 70 59
78 84 85 83 82 83 84 88 87 85 83 82 81 83 84 87 88 88 92 94 92 93 89 88 89 92 90 89 89 88 88 87 87 88 89 91 92 94 96 91 82 75 71
63 63 62 64 67 69 71 73 74 73 77 79 80 81 88 88 90 93 93 94 93 92 90 90 88 90 93 92 92 89 79 81 83 87 88 91 93 96 98 92 84 81 78
60 62 62 64 64 61 62 63 63 67 68 71 77 82 85 90 91 91 93 92 89 90 89 87 87 89 91 91 90 91 89 83 85 85 88 86 88 97 95 93 88 86 86
52 53 60 63 64 66 64 62 61 62 62 64 71 75 76 86 89 92 91 91 90 90 91 87 85 84 85 86 87 89 90 87 82 85 89 88 86 91 89 90 86 82 84
51 54 54 57 60 61 62 66 68 66 65 65 68 71 73 78 82 86 88 86 86 87 86 87 85 87 84 84 85 87 87 88 87 91 88 88 86 90 93 91 91 93 90
52 56 59 57 59 58 57 59 59 59 61 62 67 70 70 72 76 80 82 82 85 85 86 88 86 83 82 82 87 87 87 89 91 91 91 88 88 96 97 98 92 88 87
56 59 62 62 64 62 60 58 59 60 60 62 63 64 65 67 70 73 78 80 85 88 87 86 83 81 79 80 82 82 84 90 92 88 87 81 84 92 98 94 96 98 99
58 61 60 61 60 61 61 62 66 66 67 66 65 66 66 70 69 72 75 76 83 85 83 86 82 75 78 82 86 92 86 85 86 85 90 83 84 96 99 87 91 98 97
68 64 62 61 57 55 60 65 70 73 72 70 69 67 65 64 68 73 76 81 85 84 83 85 85 84 86 87 88 91 88 86 93 87 90 86 94 99 87 84 93 97 98
71 69 64 63 64 60 60 64 72 77 74 71 71 72 69 67 71 71 76 81 82 83 84 90 91 95 93 87 89 98 86 80 78 92 97 85 90 96 96 87 97 96 97
78 77 77 74 72 69 69 70 75 75 77 76 74 74 71 67 64 67 70 73 74 75 76 78 79 82 82 96 96 77 89 86 92 91 90 92 94 95 94 91 97 97 97
82 86 87 87 85 82 80 81 79 80 79 80 80 75 79 78 76 76 79 81 84 82 81 83 84 91 89 85 89 96 94 91 97 99 96 98 92 93 93 96 97 97 97

GFSMA_prec_cthk_093.txt.gz
RH
98 98 94 94 96 94 83 82 70 59 64 67 63 57 48 51 53 40 39 41 43 44 44 43 42 34 32 29 27 26 26 27 24 27 22 22 21 24 23 22 24 29 33
94 98 96 93 94 90 82 78 69 63 59 64 59 46 46 53 53 51 39 39 40 43 46 46 42 36 33 31 29 28 29 30 28 27 25 26 28 26 28 31 38 40 41
85 89 89 94 94 91 80 74 70 65 60 58 51 47 53 51 58 59 40 39 39 45 47 48 45 41 38 36 35 32 32 32 30 29 30 31 35 36 41 50 49 47 47
80 88 91 90 83 87 79 66 62 59 57 56 58 54 54 53 58 66 48 41 42 43 43 46 45 45 42 42 41 38 37 37 33 32 36 40 45 52 54 54 51 51 52
77 82 83 84 76 82 81 78 74 74 71 70 64 56 59 58 62 66 54 44 47 46 46 48 48 48 47 46 45 42 42 41 38 39 45 54 57 58 56 57 54 50 54
75 78 87 84 80 77 65 72 70 71 69 66 63 61 62 60 63 65 60 54 53 52 49 52 53 53 50 48 47 46 48 49 48 50 59 65 63 60 59 57 53 50 54
73 84 75 75 98 94 72 71 67 66 68 69 69 71 69 70 69 70 62 62 63 59 57 59 62 59 54 53 51 53 57 57 58 62 65 68 65 62 61 56 52 54 55
82 74 79 98 87 82 80 83 73 69 70 74 74 75 77 78 78 78 76 68 64 66 69 71 64 62 55 58 63 63 62 65 69 65 70 72 71 69 65 57 58 56 62
56 64 95 83 84 80 91 85 80 79 77 82 75 73 78 86 84 78 81 75 75 74 79 71 73 64 63 68 69 67 71 74 76 73 74 74 77 76 71 65 63 67 68
63 68 82 91 99 78 88 85 83 81 81 77 81 83 78 80 79 75 80 79 80 82 77 80 70 71 74 78 80 78 78 76 74 73 77 79 82 79 77 76 78 80 79
74 81 86 94 90 94 96 92 87 85 82 80 81 89 89 84 79 80 81 86 86 84 82 72 77 81 85 82 78 77 77 79 86 87 86 84 80 80 79 79 85 85 83
77 87 94 95 96 98 96 95 94 90 93 93 90 89 86 79 80 83 85 87 84 82 79 75 80 84 83 80 77 76 82 86 80 80 83 83 86 88 85 84 86 83 82
77 86 87 93 96 97 98 96 94 94 96 93 88 86 87 82 82 83 87 88 86 84 81 78 82 81 79 82 81 84 88 89 89 90 89 87 87 86 86 86 85 88 88
79 89 87 88 88 88 92 95 96 96 91 92 86 86 84 84 84 86 88 89 91 89 87 85 88 87 88 87 86 83 84 87 87 87 88 87 87 89 87 88 89 88 88
73 81 84 86 86 86 87 86 90 91 92 92 89 87 87 88 87 87 89 91 92 92 90 90 91 91 90 92 91 89 90 90 91 89 88 85 81 84 87 88 89 90 90
63 71 73 73 73 76 78 80 84 87 88 87 86 85 88 86 84 86 90 91 91 92 94 89 91 91 92 90 92 94 94 93 90 90 87 86 85 83 82 86 86 87 91
58 62 63 64 65 69 72 71 75 81 82 80 79 79 82 81 82 86 90 90 93 93 91 90 90 90 91 92 92 92 93 91 88 88 90 88 85 83 84 88 89 86 91
51 56 62 65 68 69 65 64 64 68 74 74 77 75 73 78 79 80 89 92 91 93 92 88 88 90 89 89 92 91 87 86 88 87 89 89 91 88 86 87 88 90 89
50 52 54 58 59 63 62 65 64 65 66 68 68 66 69 76 75 78 83 88 89 91 91 91 86 90 91 91 91 89 87 86 84 87 89 89 92 91 93 91 88 86 87
47 52 54 56 56 57 58 58 60 60 62 63 64 64 66 69 71 76 78 80 82 84 86 85 85 84 84 85 86 86 82 83 79 83 84 85 91 92 92 93 90 87 83
53 56 59 60 61 59 57 59 58 58 58 59 60 60 61 63 62 64 68 67 70 73 79 82 84 85 85 86 85 85 82 81 77 82 87 87 87 86 91 90 90 87 88
59 58 59 61 63 62 63 66 66 64 62 61 59 61 63 65 64 66 68 69 69 71 73 73 73 76 79 82 86 85 86 82 80 86 89 91 92 88 90 92 93 95 93
82 78 76 72 68 66 66 66 68 71 74 70 68 69 68 66 69 68 68 68 73 75 75 74 72 73 74 78 82 80 80 88 88 89 93 90 93 96 84 88 90 97 99
87 87 85 85 83 81 82 81 78 75 72 72 73 74 75 75 76 74 76 73 68 71 74 76 77 77 81 80 84 85 87 90 90 95 93 91 97 86 87 88 91 99 97
86 87 90 91 89 86 88 89 89 86 84 79 77 76 77 76 77 80 78 77 76 75 81 76 71 68 69 72 77 79 82 84 82 76 86 84 94 93 93 98 91 94 98
85 87 87 93 96 93 91 91 92 97 91 84 80 79 83 80 81 83 82 81 78 74 76 74 76 76 73 77 80 83 86 87 90 91 98 95 91 92 94 97 98 97 97

GFSMA_prec_cthk_096.txt.gz
RH
84 96 97 98 95 98 99 97 96 79 68 57 52 53 53 45 44 42 49 42 43 42 40 42 43 42 36 40 30 26 26 26 26 25 23 21 23 21 21 21 25 23 26
78 95 99 99 97 98 98 97 94 84 76 64 58 61 54 46 54 52 50 41 45 42 44 45 46 43 38 38 33 28 27 28 28 29 28 25 27 24 25 28 30 32 39
73 93 99 99 99 98 95 97 93 83 68 63 66 76 67 64 51 50 48 50 49 44 46 46 46 49 41 37 35 33 32 30 32 33 33 30 30 29 32 37 42 46 47
66 74 89 96 99 97 96 95 92 83 66 62 61 70 65 51 50 51 47 51 49 47 46 48 50 46 43 41 40 39 39 37 36 37 38 35 34 38 43 48 52 53 50
63 71 78 89 93 97 98 96 91 86 76 71 66 62 56 52 57 59 48 51 53 48 43 46 46 46 45 46 46 45 45 43 41 43 45 44 44 46 53 58 58 54 50
61 72 76 83 95 90 89 88 78 74 72 67 63 61 59 62 65 61 55 48 62 53 48 46 46 48 50 50 49 51 50 47 48 52 55 51 51 54 61 63 58 52 50
67 73 77 84 92 83 82 82 77 80 85 78 73 73 77 72 67 65 63 51 57 59 56 53 52 52 53 51 53 53 57 56 56 59 60 59 57 60 67 65 60 60 56
64 76 74 80 90 96 89 89 74 69 72 79 83 78 76 74 72 70 68 57 57 61 63 63 60 58 68 67 61 60 63 61 64 65 65 66 67 68 71 72 67 67 63
71 70 71 78 95 94 92 93 90 76 81 81 84 80 78 76 73 72 70 65 62 67 74 72 72 74 75 67 66 64 68 72 71 79 76 75 75 73 77 77 75 76 72
59 67 84 90 84 87 96 93 83 80 87 87 88 85 77 72 80 74 74 74 76 76 70 72 76 78 72 74 70 72 77 79 76 75 79 81 83 79 78 80 82 83 79
54 59 66 72 82 89 96 96 88 85 87 89 88 87 85 85 82 81 82 80 77 74 78 82 83 76 80 75 77 83 85 86 84 84 81 81 82 83 81 84 82 82 79
54 60 67 72 79 97 95 98 90 89 89 88 88 87 87 85 87 83 83 78 78 85 85 86 81 78 75 80 84 86 87 89 89 84 82 82 85 83 81 81 83 87 87
59 66 76 86 92 94 94 96 93 89 93 91 93 93 91 90 89 82 85 84 85 87 89 86 84 80 77 82 83 87 89 90 90 83 86 88 85 87 89 89 90 86 85
62 74 83 88 91 97 96 97 97 94 96 95 96 94 97 92 86 88 93 83 85 87 88 86 85 81 79 86 87 85 83 83 85 89 88 88 91 91 92 91 87 84 83
60 67 76 80 84 84 88 91 94 95 95 96 95 87 89 90 88 90 92 88 89 88 88 91 89 87 86 85 86 84 86 93 89 88 87 92 92 92 89 86 84 83 83
58 64 65 69 70 71 73 80 83 86 91 91 87 85 85 86 90 92 87 86 89 88 88 89 92 92 91 93 93 93 94 94 94 94 92 93 93 93 93 91 88 87 85
53 58 60 60 60 62 65 68 72 75 81 82 82 82 81 88 88 89 88 86 86 86 87 87 89 93 92 92 93 93 93 92 93 94 92 92 93 91 90 92 91 89 90
52 54 55 59 62 66 66 68 70 72 72 74 75 77 77 79 79 81 80 78 78 81 84 83 89 90 92 93 92 93 92 89 88 89 91 91 89 88 87 88 88 87 88
52 55 56 58 60 62 63 66 68 68 68 70 74 76 78 73 74 74 75 74 76 78 81 85 87 90 90 92 92 92 89 88 88 89 90 88 87 83 81 86 86 86 90
48 53 56 58 60 62 64 65 66 67 64 66 69 72 75 74 74 75 75 74 76 80 81 84 85 85 84 86 87 86 85 88 85 86 86 85 84 81 81 83 85 85 85
44 49 53 55 59 61 65 68 70 69 67 65 63 65 67 70 71 72 71 67 70 73 73 74 75 76 75 78 75 76 78 80 79 83 84 83 86 86 84 83 88 93 92
57 57 56 56 58 60 64 68 70 71 72 70 68 67 66 67 67 70 70 70 74 73 73 72 72 74 73 71 70 71 70 71 71 79 82 81 87 87 84 87 93 93 91
75 75 78 79 77 74 72 71 73 75 75 74 73 73 71 70 70 70 72 75 76 76 75 77 78 76 77 78 78 77 75 76 74 80 82 75 79 85 93 92 98 99 98
82 82 82 84 86 88 88 89 89 91 90 86 79 71 70 72 76 78 82 84 83 85 85 86 82 82 82 79 79 81 78 78 77 79 79 80 80 85 89 86 85 84 86
82 83 82 86 87 89 87 89 94 94 94 93 95 93 88 85 84 85 83 84 83 85 83 86 88 89 88 86 87 91 89 89 85 81 81 81 79 80 79 80 81 89 93
80 82 86 88 87 88 85 85 89 90 90 89 91 94 93 98 95 93 91 91 92 97 98 94 90 86 86 86 86 92 92 92 92 91 86 88 89 90 91 91 91 95 95

GFSMA_prec_cthk_102.txt.gz
RH
54 55 60 61 63 79 86 90 99 95 98 88 85 74 65 58 51 44 39 40 45 40 43 44 50 37 35 36 36 34 31 27 25 23 23 24 24 25 25 23 21 20 21
51 58 59 61 67 81 83 91 98 96 96 93 86 63 57 50 46 45 41 38 47 55 51 51 47 41 37 39 38 36 36 36 33 29 27 27 27 28 27 27 25 24 27
47 51 54 59 68 80 88 96 98 97 94 94 86 66 59 52 48 43 45 45 54 54 51 51 48 40 38 40 39 37 35 38 38 33 30 30 30 31 32 32 33 31 34
47 55 54 53 62 80 91 98 99 97 97 97 87 69 61 52 51 48 50 51 54 56 51 56 53 41 39 40 36 34 36 38 36 36 34 35 35 35 36 39 39 41 41
55 63 64 61 63 79 92 97 97 99 98 96 86 73 62 56 53 53 49 54 55 55 51 58 53 44 41 49 38 36 39 39 40 41 41 40 39 41 42 44 46 45 52
59 64 67 66 66 78 96 98 99 98 96 96 88 73 66 63 60 60 62 55 57 61 56 60 58 61 48 54 48 38 41 41 43 46 47 48 47 48 48 50 52 54 57
55 66 61 64 70 76 96 99 99 99 97 96 90 79 79 76 70 69 70 72 66 63 60 57 56 59 58 60 51 46 48 49 48 51 52 54 55 57 57 58 58 59 60
52 70 69 68 75 72 86 96 97 98 98 97 93 86 87 79 77 76 79 69 60 55 53 53 52 61 61 59 56 57 54 54 52 57 66 64 63 66 66 65 66 65 66
50 67 77 77 75 84 78 87 92 95 97 94 94 85 87 80 75 75 75 67 60 55 56 56 60 60 59 72 66 61 60 57 60 74 75 73 71 71 74 74 71 74 72
44 56 69 84 83 87 96 83 93 94 92 90 88 83 84 78 74 76 72 69 67 65 65 63 63 59 60 66 69 67 63 67 69 78 79 80 81 82 82 80 82 80 78
45 53 60 76 81 82 90 87 87 89 94 87 78 79 83 83 76 78 81 76 75 79 75 64 67 67 64 69 71 72 73 76 75 77 82 82 86 87 87 87 87 86 86
45 52 57 68 78 81 83 90 92 89 90 93 91 86 84 83 88 92 91 92 84 78 73 66 69 70 73 72 71 74 76 77 77 80 83 87 89 91 90 89 91 90 89
45 50 57 60 68 81 80 90 92 94 91 95 95 92 87 88 90 91 91 92 89 86 79 77 79 71 72 74 78 81 80 82 85 85 89 91 89 92 90 89 90 89 88
46 49 57 62 65 72 81 91 95 98 97 93 96 96 93 92 91 91 95 93 93 90 84 86 82 84 84 84 81 84 84 83 85 86 90 93 89 86 88 92 91 88 82
47 51 62 70 77 81 79 83 87 93 94 94 96 95 98 99 97 95 95 94 94 89 86 86 83 89 88 85 84 84 85 87 84 82 86 88 85 84 91 91 89 85 82
47 51 59 66 72 77 79 78 82 91 93 96 96 97 99 99 97 97 97 96 93 90 87 87 90 91 91 85 82 84 87 84 88 84 84 84 86 85 85 83 85 86 88
45 51 55 61 63 62 61 65 71 79 86 89 91 95 98 98 98 97 96 96 91 88 87 90 90 92 92 83 83 87 87 88 88 84 85 84 87 87 88 88 90 91 91
43 48 52 53 52 54 56 59 62 67 69 68 70 76 84 88 88 86 83 81 81 83 84 83 84 82 85 88 84 81 81 80 83 87 91 93 91 92 93 93 93 90 91
41 45 49 50 50 51 51 52 53 55 55 56 62 66 69 71 71 75 72 73 77 83 81 78 77 83 86 88 89 87 84 81 78 83 83 84 87 87 88 90 90 89 91
43 45 48 50 51 53 54 54 56 56 57 57 58 59 62 63 65 67 68 69 76 78 78 78 76 77 81 80 83 79 80 79 78 80 77 76 78 78 77 77 80 80 81
44 46 49 52 54 55 56 56 56 57 59 58 60 61 60 60 60 63 66 69 72 72 74 77 76 71 70 72 75 78 79 76 77 80 77 79 79 77 74 75 73 70 74
46 46 49 51 53 55 55 55 57 60 61 65 68 68 68 68 70 72 70 69 71 72 71 73 73 73 70 71 74 78 78 78 76 80 82 85 89 89 87 82 79 76 77
63 61 58 60 65 65 65 67 70 73 76 77 78 77 78 79 80 80 80 81 82 81 82 84 84 84 84 82 79 78 79 81 85 89 90 89 93 93 90 89 88 89 87
88 86 83 82 79 79 80 79 83 85 87 89 91 92 92 94 94 93 94 96 95 94 93 92 90 91 91 89 93 96 98 98 98 97 97 95 95 97 96 93 91 90 93
96 95 94 91 89 90 89 86 88 89 89 90 83 84 90 93 94 93 98 95 98 99 97 98 99 99 98 97 99 99 99 99 98 99 98 99 98 98 98 97 97 97 96
97 96 95 94 93 92 89 88 89 87 87 87 89 86 80 83 91 90 90 92 95 96 95 95 96 96 95 94 98 99 98 99 99 98 98 99 99 99 98 98 97 94 93

GFSMA_prec_cthk_105.txt.gz
RH
50 52 54 58 58 60 60 67 82 86 95 97 97 88 76 75 73 54 46 45 40 36 32 35 30 32 43 43 46 34 32 29 29 28 25 23 23 25 26 26 25 24 23
42 47 50 52 56 59 63 74 83 87 92 94 98 90 87 79 66 53 47 44 41 42 37 35 37 40 44 48 35 34 29 28 30 31 29 28 27 28 28 29 29 28 28
39 40 44 54 58 59 65 78 84 88 96 98 96 96 87 79 61 58 48 39 39 42 44 44 47 44 44 40 38 33 29 30 32 33 32 32 31 30 30 31 31 33 35
35 39 47 55 59 61 62 72 82 93 98 96 97 96 89 68 59 55 42 44 41 43 47 50 51 45 41 46 39 34 31 32 34 34 36 35 34 34 35 36 37 40 42
32 41 50 58 62 60 56 66 86 91 98 97 99 97 85 71 60 51 52 46 43 44 47 46 48 46 46 48 41 35 34 33 34 37 38 40 40 40 39 40 42 44 47
32 42 52 63 65 64 66 70 88 98 98 97 98 95 88 82 61 56 52 51 45 47 54 52 50 47 48 51 43 40 41 41 36 36 39 40 43 46 48 48 48 49 52
35 44 55 64 64 61 69 78 96 99 98 98 99 96 93 82 66 58 51 54 50 51 56 58 53 56 50 52 55 49 49 58 42 41 43 46 47 53 56 57 58 57 61
34 43 53 61 64 61 67 81 96 98 99 99 97 94 94 87 80 69 62 59 63 59 58 58 58 61 59 52 49 51 50 57 61 56 50 50 54 60 71 66 65 72 70
37 47 52 58 66 64 70 83 96 98 98 98 97 94 88 86 79 74 68 67 70 73 67 57 61 54 53 55 48 48 51 64 64 66 62 61 64 71 74 70 73 76 76
35 43 47 54 70 71 76 83 90 97 98 96 97 96 89 83 87 84 82 74 76 74 67 65 60 58 60 56 60 55 55 60 61 66 73 71 73 78 78 78 80 81 80
35 39 45 54 62 76 82 87 89 93 98 96 95 92 92 90 88 81 80 76 84 78 70 66 70 67 62 62 60 65 64 63 65 65 69 76 84 84 85 86 87 87 88
35 39 43 53 61 72 78 86 90 87 89 92 93 93 91 89 88 81 81 77 74 76 75 74 72 75 69 65 63 63 67 67 71 72 75 75 78 83 85 89 89 86 91
34 37 46 52 56 70 82 86 88 93 95 92 91 93 86 86 89 83 87 90 96 95 92 86 83 78 73 68 67 65 68 71 76 76 77 77 80 83 84 86 85 91 90
34 37 45 52 59 63 77 77 89 89 98 96 95 95 94 92 89 88 89 88 92 96 95 92 89 78 73 69 69 72 74 76 79 77 79 81 83 84 85 82 86 85 85
34 38 46 54 61 69 76 85 87 89 94 99 97 97 98 97 97 95 91 91 91 94 93 92 92 82 75 73 76 79 78 79 79 79 81 81 81 79 79 81 82 83 83
34 39 47 55 66 75 77 78 81 82 93 95 99 99 98 98 98 99 98 98 97 94 91 93 91 88 85 83 80 80 80 80 77 78 80 81 78 77 76 82 79 82 80
36 40 46 53 60 64 69 69 68 72 84 92 91 93 93 96 97 99 99 98 97 97 94 93 90 86 86 87 88 86 80 77 75 77 81 81 83 82 81 79 79 82 84
39 40 44 51 55 60 60 60 62 65 70 72 75 79 85 90 94 98 97 95 94 91 86 81 82 79 79 81 79 82 85 86 75 75 76 77 76 80 85 87 87 84 86
41 43 44 48 51 50 50 53 57 58 61 63 62 61 68 72 78 83 83 84 84 82 77 77 78 81 81 80 77 75 77 86 87 90 85 81 78 78 79 79 78 81 82
42 44 46 46 47 50 52 51 52 53 54 56 56 56 58 59 62 64 68 70 72 73 74 74 74 76 77 74 76 75 80 79 78 83 83 79 80 79 75 77 79 78 77
48 46 48 50 50 51 53 54 54 54 55 56 57 57 59 62 64 65 65 66 67 67 67 66 66 70 69 72 75 75 74 73 75 78 81 85 90 92 86 81 82 82 84
55 51 50 53 55 56 52 54 57 59 60 62 65 66 66 67 69 69 68 70 71 72 73 76 75 74 71 75 74 78 79 80 81 87 87 88 89 89 89 86 85 85 84
65 62 57 56 55 52 55 56 59 61 65 70 73 75 77 81 82 84 86 88 87 86 85 86 86 88 89 90 88 90 93 94 94 96 96 94 96 97 95 94 93 94 93
84 75 70 63 61 59 63 68 71 77 80 82 83 86 86 86 87 89 92 94 93 94 94 96 97 94 94 97 98 97 97 96 98 98 99 97 99 99 98 98 98 98 98
92 88 85 81 76 79 83 87 91 93 91 89 88 86 88 89 83 82 84 92 92 92 95 96 96 97 98 97 99 99 99 98 98 99 97 99 98 97 96 94 95 92 91
99 98 97 96 97 96 96 97 98 97 96 94 93 90 89 89 83 82 89 82 84 82 83 89 93 91 96 99 97 98 99 99 95 92 89 87 86 77 71 68 72 68 60

GFSMA_prec_cthk_108.txt.gz
RH
42 51 58 58 60 63 65 66 63 63 73 83 93 93 95 94 91 79 61 47 44 40 34 24 27 28 31 31 33 39 45 41 26 24 24 24 26 24 24 26 27 27 27
36 45 49 53 53 53 55 58 63 69 78 85 92 93 95 98 89 76 68 50 43 44 37 25 28 29 30 33 41 44 44 35 26 25 27 27 27 26 27 28 29 29 29
32 42 45 43 45 52 55 59 71 71 78 87 93 96 97 96 89 85 67 46 43 47 40 27 30 33 34 39 43 45 35 32 27 27 29 31 31 31 31 32 32 32 33
28 33 40 42 43 56 63 63 68 71 81 88 92 95 98 96 87 79 62 43 40 46 41 36 41 38 38 41 42 35 40 32 27 30 33 34 35 36 35 35 35 36 39
25 27 35 39 44 57 62 65 64 63 71 85 95 95 98 97 93 79 53 43 46 42 36 40 43 44 43 42 40 36 37 34 31 31 32 33 37 38 39 41 41 43 44
24 25 30 40 47 57 62 64 63 65 69 86 97 95 99 97 90 78 58 53 46 40 40 37 43 48 45 42 45 37 42 38 34 36 39 35 36 39 42 43 46 49 52
23 26 30 39 50 54 63 65 64 70 78 91 99 97 98 96 88 78 68 57 49 44 41 42 43 46 46 46 46 46 44 52 49 45 47 47 43 43 44 47 51 63 65
26 26 31 39 46 50 62 65 65 70 90 98 99 97 98 96 92 86 74 66 54 50 47 48 50 50 48 48 46 50 45 52 52 53 50 54 52 54 52 54 60 65 67
29 26 32 39 46 52 57 63 66 74 93 98 98 97 95 92 93 90 78 64 67 57 54 47 52 59 54 50 50 50 47 43 49 51 56 58 57 61 60 65 70 72 73
28 27 33 38 42 50 54 64 72 78 93 97 98 98 95 90 92 94 90 74 74 68 64 61 58 63 62 55 53 50 45 41 44 53 60 64 60 64 67 70 73 79 76
30 28 33 37 41 48 53 64 80 80 93 97 98 95 94 93 91 88 89 84 71 72 74 75 72 69 58 60 60 55 52 49 47 54 60 66 70 74 72 82 82 83 83
33 29 31 37 40 49 54 62 79 84 84 96 97 97 95 93 91 89 90 87 84 78 77 80 79 78 73 66 64 63 59 56 58 59 62 67 71 76 78 81 82 85 88
34 28 33 37 42 50 56 62 73 81 84 91 92 95 95 93 93 94 92 88 80 78 79 79 78 78 76 77 73 66 63 63 63 65 67 72 76 77 75 77 81 83 83
32 27 31 39 47 52 59 64 78 82 90 91 94 95 91 93 91 91 88 84 90 91 92 90 93 92 89 81 79 73 65 63 65 69 76 79 79 78 80 81 84 82 80
36 28 34 42 48 54 59 65 81 80 89 91 96 96 93 95 94 90 90 89 87 88 91 89 92 93 94 86 78 77 72 67 69 72 78 78 78 78 80 81 80 78 77
37 30 33 42 50 58 67 74 81 84 86 90 91 99 99 98 96 96 95 93 93 91 90 91 92 92 94 92 87 80 79 81 80 79 79 76 76 76 79 82 79 78 77
36 33 36 42 49 56 63 68 71 74 80 86 90 98 98 97 95 97 99 98 97 97 97 96 94 94 94 92 89 85 85 87 82 81 77 75 73 75 77 79 81 86 86
39 36 38 43 47 54 60 64 62 59 62 67 76 84 94 96 94 95 96 99 99 98 99 97 94 89 85 78 77 78 80 80 80 82 84 81 76 76 79 81 81 79 81
48 40 43 45 48 52 57 56 54 59 60 64 70 72 74 75 78 82 86 92 94 95 93 86 81 81 77 74 76 77 77 77 77 78 77 80 80 82 83 83 82 79 77
56 46 45 47 51 50 52 51 53 54 56 60 62 62 60 61 64 67 70 73 76 74 75 75 75 76 74 73 76 77 76 76 76 76 78 79 80 85 85 86 85 86 87
64 57 57 51 51 52 50 50 51 52 54 55 56 58 59 60 60 60 61 62 63 63 64 65 66 68 69 72 73 75 74 75 77 79 79 82 82 82 83 86 89 92 93
75 64 65 66 58 51 51 52 53 56 58 59 60 60 61 61 61 63 66 69 71 74 74 74 73 72 74 76 80 81 82 84 87 88 89 89 90 89 89 89 91 92 93
81 71 69 70 62 57 57 57 58 60 61 62 62 64 66 67 71 74 80 83 85 85 86 87 88 89 89 89 90 91 94 97 98 98 99 99 99 98 96 94 94 96 98
87 79 73 73 71 70 70 63 62 63 63 65 67 68 70 74 79 84 86 86 88 86 89 91 94 97 97 98 98 98 99 99 99 98 98 97 98 98 98 96 96 92 91
92 83 80 79 78 78 73 71 69 67 67 70 75 83 88 88 88 89 92 92 88 84 84 90 96 96 92 91 95 93 95 96 95 96 98 98 98 99 97 90 80 76 71
96 95 96 96 96 92 80 78 75 71 78 86 92 94 94 93 92 91 92 91 92 84 86 98 94 94 93 90 90 96 97 98 90 76 87 84 73 71 61 56 57 55 53

GFSMA_prec_cthk_114.txt.gz
RH
23 27 31 35 41 49 56 60 64 61 59 62 67 65 64 68 78 89 92 94 93 89 73 54 37 21 23 26 27 26 27 35 32 34 33 29 25 24 31 33 26 26 22
24 26 29 31 37 41 45 51 56 58 62 61 62 62 66 70 78 90 91 98 95 92 74 49 34 26 25 38 29 27 32 33 34 38 30 26 29 28 30 31 30 29 30
26 27 28 29 33 37 38 40 46 50 53 56 59 62 68 72 77 84 94 98 97 89 72 65 39 29 28 31 28 29 31 40 37 35 26 25 28 31 35 36 37 38 36
27 29 30 27 31 35 36 39 41 43 50 58 62 67 69 71 79 87 97 98 97 86 63 54 40 33 29 33 29 29 34 43 42 30 28 26 27 30 33 35 37 39 40
28 30 29 29 30 31 33 37 37 40 50 58 64 68 69 71 79 92 98 98 96 80 66 43 41 37 32 29 30 30 35 41 39 33 34 31 27 30 33 35 37 39 42
31 32 32 32 30 31 33 36 39 43 48 63 66 68 69 70 77 94 99 97 96 82 60 42 43 41 37 32 31 32 40 41 36 36 34 31 30 32 34 39 43 44 44
33 33 34 33 32 30 32 36 40 45 53 59 65 69 72 68 74 90 96 99 95 84 60 43 42 42 44 39 30 37 41 41 42 40 38 32 36 39 44 45 50 51 52
36 35 35 36 34 32 33 36 40 47 52 58 65 73 71 78 78 93 97 98 93 82 62 47 43 47 46 41 35 40 40 40 44 48 45 42 41 42 45 47 49 52 57
40 38 38 41 38 34 32 36 41 47 51 59 68 73 74 79 84 96 97 97 92 83 64 49 51 50 47 41 38 42 41 43 47 47 46 46 46 44 44 46 50 55 62
42 41 41 44 44 40 34 36 40 45 52 58 67 71 73 84 95 96 98 96 95 87 77 58 54 50 45 42 40 43 42 43 45 48 48 49 47 43 44 49 53 59 67
43 42 43 45 50 46 38 37 42 44 51 56 63 73 86 95 99 97 97 97 97 94 88 72 61 54 48 45 44 44 46 45 47 53 48 49 48 46 48 54 57 65 72
42 43 45 46 54 53 42 38 41 45 52 56 63 73 85 93 97 95 96 96 97 96 92 82 74 65 60 51 51 52 55 56 54 58 49 49 50 53 55 58 63 70 77
43 46 46 46 56 57 46 38 41 46 53 58 64 73 87 93 95 96 96 97 97 96 94 89 80 77 70 67 67 66 67 69 70 63 66 65 60 56 60 63 68 74 78
43 50 47 47 57 61 48 39 42 49 56 62 65 76 88 94 97 95 94 95 97 96 95 93 86 79 80 78 74 78 82 81 77 74 72 69 66 66 71 71 72 75 79
46 48 47 50 60 62 49 41 44 53 60 65 68 82 88 93 97 98 97 96 94 96 95 94 95 89 85 87 89 91 93 93 87 83 76 75 74 76 71 70 71 78 82
49 49 49 52 62 61 50 42 46 55 64 75 79 84 90 92 97 97 96 95 96 95 95 86 84 85 90 92 95 96 96 96 93 90 86 81 78 75 74 74 77 80 80
56 51 51 57 62 62 51 46 48 56 66 76 84 88 89 90 95 98 97 97 96 92 92 89 89 92 93 95 96 95 97 97 96 92 91 88 88 81 79 80 79 78 78
67 57 54 61 64 65 53 49 50 57 65 70 79 82 86 90 94 94 98 98 96 97 96 96 96 95 96 96 96 96 96 96 96 93 88 85 87 85 82 81 82 81 81
81 70 62 67 70 67 59 52 50 54 61 66 68 68 71 81 92 98 97 98 98 98 98 97 97 97 97 98 97 97 97 95 91 87 86 81 82 82 82 83 84 82 80
87 70 71 73 75 72 63 53 55 57 60 63 63 64 70 70 76 81 91 95 98 99 98 97 98 98 99 99 98 98 95 86 82 81 78 76 78 80 80 79 80 81 81
87 79 79 77 78 74 67 60 57 59 60 59 58 59 62 65 68 70 71 75 80 82 82 84 90 96 96 95 90 86 80 80 80 75 73 73 76 74 76 79 83 84 88
94 78 83 82 79 74 71 66 63 62 60 58 57 58 57 60 64 65 64 65 65 68 69 71 71 72 74 69 70 72 71 72 76 73 74 74 77 83 87 88 92 95 96
94 79 83 81 82 86 83 73 66 67 67 62 60 59 58 58 62 62 62 61 61 61 61 66 67 68 65 66 69 72 75 78 78 78 83 86 88 91 95 95 96 97 97
90 93 91 87 87 89 90 88 73 69 70 71 67 63 61 60 61 62 62 62 63 65 66 69 69 70 76 83 86 86 88 92 95 97 96 95 96 96 92 89 88 90 92
95 97 94 91 94 94 95 94 94 81 73 76 78 74 70 75 75 69 68 69 69 69 68 69 74 78 80 86 90 91 86 94 97 97 99 99 96 95 96 93 89 80 69
96 96 96 95 96 99 98 97 98 98 90 79 81 84 85 86 86 82 83 77 77 75 76 80 83 90 93 95 95 93 88 91 93 97 98 99 98 93 88 81 71 59 52

GFSMA_prec_cthk_117.txt.gz
RH
22 23 26 29 34 40 45 50 54 58 62 59 58 59 63 62 62 65 73 88 94 95 90 91 77 49 31 27 28 31 32 28 28 30 32 31 31 21 21 27 33 39 29
23 23 26 28 31 35 40 45 48 51 53 54 57 62 61 62 61 65 75 83 92 95 96 92 79 55 38 23 27 30 29 27 33 32 37 36 29 25 27 30 34 32 30
25 25 27 29 31 32 36 39 42 44 48 50 52 56 58 61 62 67 71 78 87 93 97 95 80 60 43 30 30 32 32 30 31 35 38 37 30 28 29 35 38 36 36
28 27 28 30 31 32 33 35 37 39 42 45 46 52 58 60 64 66 70 76 83 96 98 95 77 55 40 29 32 37 30 31 37 42 44 36 31 28 28 31 35 38 39
30 28 29 31 32 34 32 33 36 37 39 41 45 52 58 64 65 65 68 73 86 99 96 94 77 70 47 34 34 34 30 30 37 40 40 37 36 31 28 30 32 33 37
33 30 29 32 34 36 35 33 35 38 39 42 48 51 63 69 69 67 67 73 97 99 96 88 76 62 47 40 37 33 27 31 35 40 40 38 35 35 32 31 33 39 41
36 32 31 34 36 37 36 34 36 39 40 43 53 57 64 67 68 71 67 80 98 98 96 81 74 45 44 43 46 40 30 32 38 41 39 42 38 33 32 33 37 43 49
37 34 34 35 38 41 40 38 38 38 39 45 49 56 62 66 71 75 73 86 96 98 97 89 72 45 44 46 50 47 40 36 43 42 43 42 39 36 39 41 44 46 51
43 38 38 37 40 41 44 40 38 39 42 45 52 56 61 65 77 74 79 84 94 98 98 93 70 47 44 48 48 48 42 38 41 41 41 43 44 39 41 41 45 48 50
53 43 41 40 43 44 45 45 41 41 44 45 51 56 60 68 76 76 76 86 97 97 97 90 69 51 48 47 49 48 40 37 39 41 42 46 47 45 45 44 47 46 50
52 51 46 42 43 45 47 49 44 42 45 45 50 55 59 69 78 85 94 94 97 97 97 93 76 58 53 55 52 48 41 38 41 41 43 46 47 50 48 48 47 49 53
53 53 51 48 44 45 46 51 49 47 46 47 51 55 60 64 72 89 99 96 99 96 97 95 88 72 60 57 54 49 44 41 43 44 45 47 47 53 51 52 53 56 60
54 50 52 49 46 46 48 52 54 49 45 45 50 58 63 63 72 87 96 99 99 95 97 97 95 88 80 73 61 56 57 47 47 49 53 59 61 54 51 56 58 64 61
64 52 52 53 49 51 52 55 58 52 45 45 53 61 62 66 70 87 93 98 99 98 97 97 96 90 86 80 74 68 68 66 65 68 71 72 70 69 69 64 63 61 65
57 54 53 53 51 55 56 57 60 53 45 47 54 65 64 66 80 87 95 97 96 98 98 97 95 94 88 84 80 79 79 80 83 81 83 82 83 82 74 74 69 70 73
61 60 56 52 51 56 54 58 61 53 46 48 55 68 73 82 86 87 96 98 97 96 95 94 94 91 84 86 82 83 84 86 86 93 92 89 87 83 80 80 76 77 73
65 71 60 59 53 54 55 59 61 54 50 50 57 67 74 82 89 92 96 98 98 97 95 95 96 94 93 90 86 87 91 93 95 97 95 92 93 92 88 86 81 78 76
66 76 73 69 59 55 56 62 59 57 52 51 57 66 73 80 85 88 94 97 97 97 95 93 93 89 88 89 94 95 95 96 96 96 98 95 92 93 93 90 82 80 76
71 78 78 77 73 62 58 63 62 62 55 51 58 62 69 69 73 84 92 94 99 98 97 96 94 95 95 95 95 96 96 96 97 98 97 98 93 90 85 84 83 82 82
82 83 83 86 90 72 66 69 68 65 60 55 56 61 65 66 71 73 74 92 98 99 98 98 98 99 97 98 98 98 98 97 98 98 95 95 90 83 81 81 81 82 80
90 87 88 92 89 82 76 73 74 71 64 59 58 59 61 63 67 69 71 80 84 97 98 99 99 99 99 98 98 98 98 99 98 97 93 85 80 82 80 77 76 79 79
89 91 90 96 93 81 72 74 74 74 71 64 60 60 59 61 63 68 72 68 70 76 76 81 86 86 87 88 93 97 97 96 95 89 85 81 78 77 76 74 75 79 83
84 85 90 97 96 83 82 78 75 79 76 69 63 60 57 58 64 64 64 68 68 68 68 71 73 73 72 75 74 77 76 74 77 78 77 79 77 78 79 80 84 87 93
85 86 96 96 97 85 88 77 79 85 85 79 69 64 66 64 69 66 65 65 67 67 67 66 66 65 67 70 70 70 71 75 76 78 82 85 87 90 93 96 96 99 98
90 99 96 93 98 88 94 84 88 92 91 92 88 77 71 68 69 68 68 68 67 66 66 65 66 69 71 74 75 77 82 85 86 89 94 93 95 96 98 97 97 97 99
96 90 91 89 89 99 97 95 94 94 94 95 96 90 81 77 76 79 74 73 75 78 78 77 74 73 75 77 79 82 86 90 97 97 95 92 97 97 98 99 99 99 96

GFSMA_prec_cthk_123.txt.gz
RH
25 26 26 27 29 32 33 35 39 43 45 46 48 53 55 52 51 53 56 58 60 63 86 98 97 93 87 77 47 31 30 29 29 33 31 28 29 31 26 22 20 26 31
25 26 26 26 28 31 33 35 37 40 43 45 45 46 53 53 51 53 55 57 58 60 76 96 98 94 93 81 55 33 31 30 29 30 32 28 29 33 31 24 22 27 33
27 27 27 26 28 31 34 36 38 40 41 43 44 45 53 53 51 49 52 57 57 58 66 82 96 96 97 92 73 41 33 31 29 32 32 28 34 36 32 26 27 29 29
31 29 28 28 28 31 34 35 38 40 40 40 42 43 47 52 53 50 47 52 57 59 62 68 76 86 97 95 77 42 36 32 32 29 29 34 33 37 33 28 30 31 32
34 32 31 31 31 31 34 36 38 38 39 40 41 41 42 46 47 47 45 50 56 60 60 70 71 76 89 94 85 50 44 41 33 31 32 34 34 36 35 29 30 31 32
35 35 35 35 35 33 34 36 38 38 39 41 42 41 43 46 46 47 48 53 59 64 65 64 64 73 90 89 90 64 53 45 40 34 35 33 35 35 35 33 32 31 31
43 44 44 42 38 37 35 36 38 40 42 42 44 42 41 42 46 50 53 53 57 64 67 67 65 69 83 96 91 81 64 46 37 36 35 35 36 35 35 33 32 33 33
48 46 45 48 43 39 38 38 39 40 45 45 45 42 41 38 41 42 44 50 53 61 67 72 70 76 89 97 92 77 60 47 38 37 38 38 36 35 36 34 31 33 34
51 53 52 55 48 41 40 40 41 44 47 43 47 49 46 43 40 39 44 45 53 59 69 72 76 83 97 97 92 75 54 56 49 38 34 32 36 36 37 40 39 32 32
54 57 59 58 57 54 48 47 46 50 47 46 50 46 48 45 44 44 43 47 52 60 70 75 80 80 93 98 92 73 58 58 53 43 42 39 37 34 36 41 41 34 33
56 62 68 70 73 71 66 58 53 49 48 48 47 46 49 52 50 46 47 51 53 59 67 74 79 86 96 98 90 77 54 51 54 53 52 48 44 36 35 40 40 40 35
49 53 72 74 79 89 86 74 63 53 52 52 49 49 49 53 51 51 47 53 56 58 65 76 89 94 99 97 88 86 52 47 52 51 51 50 47 45 39 33 34 40 44
46 51 60 71 70 77 82 78 73 66 60 58 54 51 50 53 57 52 51 54 61 62 61 74 90 94 97 99 96 92 67 51 49 49 50 50 47 47 48 44 39 40 45
54 57 62 80 71 69 73 78 75 73 69 65 59 55 56 54 54 52 53 59 66 64 62 75 94 94 97 99 95 92 73 62 57 58 61 59 56 51 50 49 48 45 48
58 62 67 72 82 77 77 75 72 69 69 70 64 59 60 61 58 54 52 59 70 65 66 83 90 96 97 99 96 93 82 67 65 62 61 60 57 54 50 51 52 51 58
59 62 69 74 73 68 69 75 72 70 70 69 67 62 65 64 62 55 54 59 71 78 79 89 94 97 99 98 98 96 88 82 74 71 76 70 63 62 64 66 67 71 74
58 63 65 69 72 66 66 69 73 69 69 68 68 64 70 69 63 55 54 56 68 82 85 86 93 98 98 98 97 94 96 94 89 91 84 76 76 74 79 82 84 84 84
51 57 62 68 71 75 74 72 75 73 73 73 73 71 73 71 63 55 56 54 65 76 82 89 95 98 98 96 97 96 95 96 94 94 90 81 80 82 84 87 89 94 93
56 58 59 59 62 65 69 69 71 70 72 78 77 79 76 72 60 58 59 55 62 69 72 87 92 96 99 98 98 98 98 91 89 89 87 85 85 87 87 92 96 97 96
66 68 66 65 64 60 59 66 73 74 77 82 85 86 80 75 64 61 62 58 61 65 66 79 91 97 99 98 97 98 95 91 88 90 89 90 91 92 95 97 98 98 98
74 77 79 77 76 72 70 75 75 79 89 91 94 92 85 74 66 66 61 61 61 64 65 74 86 93 98 97 96 96 96 94 93 94 94 94 97 98 97 97 98 96 98
79 83 81 81 82 80 78 79 80 87 91 94 98 97 90 77 72 72 67 64 63 63 62 64 80 76 94 98 98 97 98 98 96 96 96 98 98 97 99 98 99 99 99
78 82 84 82 81 99 94 92 93 95 97 98 99 99 93 85 83 79 71 72 65 64 62 62 64 77 73 92 92 98 98 98 98 97 96 98 98 98 98 98 99 98 95
75 80 83 82 81 82 89 96 98 96 97 98 98 98 97 94 91 84 77 80 77 66 63 67 65 68 70 72 73 78 89 92 92 91 91 89 86 88 89 91 89 85 83
82 81 82 85 83 82 85 92 98 96 95 99 97 98 96 94 91 90 81 87 81 79 70 67 66 68 68 72 74 74 75 81 80 88 84 84 81 80 82 76 77 77 82
86 85 84 87 88 85 87 91 94 95 93 91 99 96 98 99 93 88 87 93 90 91 87 78 73 71 74 72 75 74 75 75 76 76 74 75 75 76 75 77 79 81 84